Wetterdaten: Mittwoch, 10.04.2019
Datum Zeit Temp. Aussen Temp. o. S. +5cm Feuchte Auss Luftdruck Regen Sonnenschein Regendauer Solar Windben Empfang
10.04.2019 00:00 10,2 C 9,4 C 8,9 C 70 % 1009,9 hPa 0,0 l/m 0 min 0 min 0 W/m 9,7 km/h (2 Bft) 95,74 %
10.04.2019 00:02 10,1 C 9,4 C 8,3 C 70 % 1009,9 hPa 0,0 l/m 0 min 0 min 0 W/m 12,9 km/h (3 Bft) 92,50 %
10.04.2019 00:04 10,1 C 8,9 C 8,3 C 70 % 1010,0 hPa 0,0 l/m 0 min 0 min 0 W/m 9,7 km/h (2 Bft) 95,74 %
10.04.2019 00:08 10,1 C 8,9 C 8,3 C 70 % 1010,0 hPa 0,0 l/m 0 min 0 min 0 W/m 12,9 km/h (3 Bft) 96,77 %
10.04.2019 00:10 10,0 C 8,9 C 8,3 C 70 % 1010,1 hPa 0,0 l/m 0 min 0 min 0 W/m 9,7 km/h (2 Bft) 97,87 %
10.04.2019 00:12 10,0 C 8,9 C 8,3 C 70 % 1010,1 hPa 0,0 l/m 0 min 0 min 0 W/m 9,7 km/h (2 Bft) 95,74 %
10.04.2019 00:14 10,0 C 8,9 C 8,3 C 70 % 1010,2 hPa 0,0 l/m 0 min 0 min 0 W/m 9,7 km/h (2 Bft) 97,87 %
10.04.2019 00:16 9,9 C 8,9 C 8,3 C 70 % 1010,2 hPa 0,0 l/m 0 min 0 min 0 W/m 16,1 km/h (3 Bft) 97,87 %
10.04.2019 00:18 9,9 C 8,9 C 8,3 C 69 % 1010,2 hPa 0,0 l/m 0 min 0 min 0 W/m 12,9 km/h (3 Bft) 100,00 %
10.04.2019 00:20 9,9 C 8,9 C 8,3 C 70 % 1010,3 hPa 0,0 l/m 0 min 0 min 0 W/m 16,1 km/h (3 Bft) 97,83 %
10.04.2019 00:22 9,9 C 8,9 C 8,3 C 70 % 1010,3 hPa 0,0 l/m 0 min 0 min 0 W/m 9,7 km/h (2 Bft) 97,87 %
10.04.2019 00:24 9,9 C 8,9 C 8,3 C 70 % 1010,3 hPa 0,0 l/m 0 min 0 min 0 W/m 9,7 km/h (2 Bft) 97,87 %
10.04.2019 00:26 9,8 C 8,9 C 8,3 C 70 % 1010,3 hPa 0,0 l/m 0 min 0 min 0 W/m 6,4 km/h (2 Bft) 100,00 %
10.04.2019 00:28 9,8 C 8,3 C 7,8 C 70 % 1010,4 hPa 0,0 l/m 0 min 0 min 0 W/m 6,4 km/h (2 Bft) 100,00 %
10.04.2019 00:30 9,8 C 8,3 C 7,8 C 70 % 1010,4 hPa 0,0 l/m 0 min 0 min 0 W/m 16,1 km/h (3 Bft) 97,87 %
10.04.2019 00:32 9,7 C 8,3 C 7,8 C 70 % 1010,4 hPa 0,0 l/m 0 min 0 min 0 W/m 16,1 km/h (3 Bft) 100,00 %
10.04.2019 00:34 9,7 C 8,3 C 7,8 C 70 % 1010,4 hPa 0,0 l/m 0 min 0 min 0 W/m 9,7 km/h (2 Bft) 100,00 %
10.04.2019 00:36 9,7 C 8,3 C 7,8 C 70 % 1010,4 hPa 0,0 l/m 0 min 0 min 0 W/m 6,4 km/h (2 Bft) 100,00 %
10.04.2019 00:38 9,6 C 8,3 C 7,8 C 71 % 1010,4 hPa 0,0 l/m 0 min 0 min 0 W/m 6,4 km/h (2 Bft) 100,00 %
10.04.2019 00:40 9,6 C 8,3 C 7,8 C 71 % 1010,4 hPa 0,0 l/m 0 min 0 min 0 W/m 9,7 km/h (2 Bft) 100,00 %
10.04.2019 00:42 9,6 C 8,3 C 7,8 C 71 % 1010,4 hPa 0,0 l/m 0 min 0 min 0 W/m 9,7 km/h (2 Bft) 100,00 %
10.04.2019 00:44 9,6 C 8,3 C 7,8 C 71 % 1010,5 hPa 0,0 l/m 0 min 0 min 0 W/m 9,7 km/h (2 Bft) 100,00 %
10.04.2019 00:46 9,5 C 8,3 C 7,8 C 71 % 1010,5 hPa 0,0 l/m 0 min 0 min 0 W/m 9,7 km/h (2 Bft) 100,00 %
10.04.2019 00:48 9,4 C 8,3 C 7,8 C 71 % 1010,5 hPa 0,0 l/m 0 min 0 min 0 W/m 12,9 km/h (3 Bft) 100,00 %
10.04.2019 00:50 9,4 C 8,3 C 7,8 C 71 % 1010,4 hPa 0,0 l/m 0 min 0 min 0 W/m 9,7 km/h (2 Bft) 100,00 %
10.04.2019 00:52 9,4 C 8,3 C 7,8 C 71 % 1010,5 hPa 0,0 l/m 0 min 0 min 0 W/m 12,9 km/h (3 Bft) 100,00 %
10.04.2019 00:54 9,3 C 8,3 C 7,8 C 71 % 1010,5 hPa 0,0 l/m 0 min 0 min 0 W/m 12,9 km/h (3 Bft) 100,00 %
10.04.2019 00:56 9,3 C 8,3 C 7,8 C 71 % 1010,5 hPa 0,0 l/m 0 min 0 min 0 W/m 12,9 km/h (3 Bft) 100,00 %
10.04.2019 00:58 9,3 C 8,3 C 7,8 C 71 % 1010,5 hPa 0,0 l/m 0 min 0 min 0 W/m 9,7 km/h (2 Bft) 100,00 %
10.04.2019 01:00 9,3 C 8,3 C 7,8 C 71 % 1010,5 hPa 0,0 l/m 0 min 0 min 0 W/m 9,7 km/h (2 Bft) 100,00 %
10.04.2019 01:02 9,2 C 8,3 C 7,8 C 71 % 1010,4 hPa 0,0 l/m 0 min 0 min 0 W/m 12,9 km/h (3 Bft) 100,00 %
10.04.2019 01:04 9,2 C 8,3 C 7,8 C 71 % 1010,5 hPa 0,0 l/m 0 min 0 min 0 W/m 9,7 km/h (2 Bft) 97,87 %
10.04.2019 01:06 9,2 C 8,3 C 7,8 C 71 % 1010,5 hPa 0,0 l/m 0 min 0 min 0 W/m 9,7 km/h (2 Bft) 100,00 %
10.04.2019 01:08 9,2 C 8,3 C 7,8 C 71 % 1010,5 hPa 0,0 l/m 0 min 0 min 0 W/m 9,7 km/h (2 Bft) 100,00 %
10.04.2019 01:10 9,2 C 8,3 C 7,8 C 71 % 1010,5 hPa 0,0 l/m 0 min 0 min 0 W/m 12,9 km/h (3 Bft) 100,00 %
10.04.2019 01:12 9,1 C 8,3 C 7,8 C 71 % 1010,5 hPa 0,0 l/m 0 min 0 min 0 W/m 12,9 km/h (3 Bft) 97,87 %
10.04.2019 01:14 9,1 C 8,3 C 7,8 C 71 % 1010,5 hPa 0,0 l/m 0 min 0 min 0 W/m 12,9 km/h (3 Bft) 100,00 %
10.04.2019 01:16 9,1 C 8,3 C 7,8 C 71 % 1010,5 hPa 0,0 l/m 0 min 0 min 0 W/m 12,9 km/h (3 Bft) 97,87 %
10.04.2019 01:18 9,1 C 7,8 C 7,2 C 71 % 1010,5 hPa 0,0 l/m 0 min 0 min 0 W/m 12,9 km/h (3 Bft) 100,00 %
10.04.2019 01:20 9,0 C 7,8 C 7,2 C 71 % 1010,5 hPa 0,0 l/m 0 min 0 min 0 W/m 16,1 km/h (3 Bft) 100,00 %
10.04.2019 01:22 9,0 C 7,8 C 7,2 C 71 % 1010,5 hPa 0,0 l/m 0 min 0 min 0 W/m 9,7 km/h (2 Bft) 100,00 %
10.04.2019 01:24 9,0 C 7,8 C 7,2 C 71 % 1010,5 hPa 0,0 l/m 0 min 0 min 0 W/m 12,9 km/h (3 Bft) 95,92 %
10.04.2019 01:26 8,9 C 7,8 C 7,2 C 71 % 1010,5 hPa 0,0 l/m 0 min 0 min 0 W/m 12,9 km/h (3 Bft) 100,00 %
10.04.2019 01:28 8,9 C 7,8 C 7,2 C 71 % 1010,5 hPa 0,0 l/m 0 min 0 min 0 W/m 9,7 km/h (2 Bft) 100,00 %
10.04.2019 01:30 8,9 C 7,8 C 7,2 C 71 % 1010,5 hPa 0,0 l/m 0 min 0 min 0 W/m 12,9 km/h (3 Bft) 97,87 %
10.04.2019 01:32 8,9 C 7,8 C 7,2 C 71 % 1010,5 hPa 0,0 l/m 0 min 0 min 0 W/m 12,9 km/h (3 Bft) 97,87 %
10.04.2019 01:34 8,9 C 7,8 C 7,2 C 71 % 1010,5 hPa 0,0 l/m 0 min 0 min 0 W/m 12,9 km/h (3 Bft) 97,87 %
10.04.2019 01:36 8,8 C 7,8 C 7,2 C 71 % 1010,6 hPa 0,0 l/m 0 min 0 min 0 W/m 12,9 km/h (3 Bft) 97,87 %
10.04.2019 01:38 8,8 C 7,8 C 7,2 C 71 % 1010,5 hPa 0,0 l/m 0 min 0 min 0 W/m 16,1 km/h (3 Bft) 100,00 %
10.04.2019 01:40 8,8 C 7,8 C 7,2 C 71 % 1010,5 hPa 0,0 l/m 0 min 0 min 0 W/m 12,9 km/h (3 Bft) 100,00 %
10.04.2019 01:42 8,7 C 7,8 C 7,2 C 71 % 1010,5 hPa 0,0 l/m 0 min 0 min 0 W/m 9,7 km/h (2 Bft) 100,00 %
10.04.2019 01:44 8,7 C 7,8 C 7,2 C 71 % 1010,5 hPa 0,0 l/m 0 min 0 min 0 W/m 12,9 km/h (3 Bft) 97,87 %
10.04.2019 01:46 8,7 C 7,8 C 7,2 C 71 % 1010,5 hPa 0,0 l/m 0 min 0 min 0 W/m 9,7 km/h (2 Bft) 95,74 %
10.04.2019 01:48 8,7 C 7,8 C 7,2 C 71 % 1010,5 hPa 0,0 l/m 0 min 0 min 0 W/m 12,9 km/h (3 Bft) 100,00 %
10.04.2019 01:50 8,6 C 7,8 C 7,2 C 71 % 1010,6 hPa 0,0 l/m 0 min 0 min 0 W/m 9,7 km/h (2 Bft) 97,87 %
10.04.2019 01:52 8,6 C 7,8 C 7,2 C 71 % 1010,5 hPa 0,0 l/m 0 min 0 min 0 W/m 12,9 km/h (3 Bft) 97,83 %
10.04.2019 01:54 8,6 C 7,8 C 7,2 C 71 % 1010,5 hPa 0,0 l/m 0 min 0 min 0 W/m 12,9 km/h (3 Bft) 97,87 %
10.04.2019 01:56 8,6 C 7,2 C 6,7 C 71 % 1010,5 hPa 0,0 l/m 0 min 0 min 0 W/m 12,9 km/h (3 Bft) 97,87 %
10.04.2019 01:58 8,6 C 7,2 C 6,7 C 71 % 1010,5 hPa 0,0 l/m 0 min 0 min 0 W/m 9,7 km/h (2 Bft) 97,87 %
10.04.2019 02:00 8,5 C 7,2 C 6,7 C 71 % 1010,5 hPa 0,0 l/m 0 min 0 min 0 W/m 9,7 km/h (2 Bft) 97,87 %
10.04.2019 02:02 8,4 C 7,2 C 6,7 C 71 % 1010,5 hPa 0,0 l/m 0 min 0 min 0 W/m 12,9 km/h (3 Bft) 97,87 %
10.04.2019 02:04 8,4 C 7,2 C 6,7 C 71 % 1010,5 hPa 0,0 l/m 0 min 0 min 0 W/m 12,9 km/h (3 Bft) 97,83 %
10.04.2019 02:06 8,4 C 7,2 C 6,7 C 71 % 1010,5 hPa 0,0 l/m 0 min 0 min 0 W/m 12,9 km/h (3 Bft) 97,87 %
10.04.2019 02:08 8,4 C 7,2 C 6,7 C 71 % 1010,5 hPa 0,0 l/m 0 min 0 min 0 W/m 9,7 km/h (2 Bft) 97,87 %
10.04.2019 02:10 8,3 C 7,2 C 6,7 C 72 % 1010,5 hPa 0,0 l/m 0 min 0 min 0 W/m 16,1 km/h (3 Bft) 97,87 %
10.04.2019 02:12 8,3 C 7,2 C 6,7 C 72 % 1010,4 hPa 0,0 l/m 0 min 0 min 0 W/m 12,9 km/h (3 Bft) 97,87 %
10.04.2019 02:14 8,3 C 7,2 C 6,7 C 72 % 1010,5 hPa 0,0 l/m 0 min 0 min 0 W/m 9,7 km/h (2 Bft) 95,65 %
10.04.2019 02:16 8,3 C 7,2 C 6,7 C 72 % 1010,5 hPa 0,0 l/m 0 min 0 min 0 W/m 9,7 km/h (2 Bft) 93,62 %
10.04.2019 02:18 8,2 C 7,2 C 6,7 C 72 % 1010,5 hPa 0,0 l/m 0 min 0 min 0 W/m 12,9 km/h (3 Bft) 93,62 %
10.04.2019 02:20 8,2 C 7,2 C 6,7 C 72 % 1010,5 hPa 0,0 l/m 0 min 0 min 0 W/m 12,9 km/h (3 Bft) 93,62 %
10.04.2019 02:22 8,2 C 7,2 C 6,7 C 72 % 1010,5 hPa 0,0 l/m 0 min 0 min 0 W/m 16,1 km/h (3 Bft) 91,49 %
10.04.2019 02:24 8,2 C 7,2 C 6,7 C 72 % 1010,5 hPa 0,0 l/m 0 min 0 min 0 W/m 12,9 km/h (3 Bft) 93,62 %
10.04.2019 02:26 8,1 C 7,2 C 6,7 C 72 % 1010,5 hPa 0,0 l/m 0 min 0 min 0 W/m 16,1 km/h (3 Bft) 93,48 %
10.04.2019 02:28 8,1 C 7,2 C 6,7 C 72 % 1010,5 hPa 0,0 l/m 0 min 0 min 0 W/m 12,9 km/h (3 Bft) 95,74 %
10.04.2019 02:30 8,1 C 7,2 C 6,7 C 72 % 1010,5 hPa 0,0 l/m 0 min 0 min 0 W/m 9,7 km/h (2 Bft) 95,74 %
10.04.2019 02:32 8,1 C 7,2 C 6,7 C 72 % 1010,6 hPa 0,0 l/m 0 min 0 min 0 W/m 16,1 km/h (3 Bft) 95,74 %
10.04.2019 02:34 8,0 C 7,2 C 6,7 C 72 % 1010,5 hPa 0,0 l/m 0 min 0 min 0 W/m 9,7 km/h (2 Bft) 93,62 %
10.04.2019 02:36 8,0 C 6,7 C 6,7 C 73 % 1010,5 hPa 0,0 l/m 0 min 0 min 0 W/m 9,7 km/h (2 Bft) 93,62 %
10.04.2019 02:38 7,9 C 6,7 C 6,7 C 73 % 1010,5 hPa 0,0 l/m 0 min 0 min 0 W/m 16,1 km/h (3 Bft) 95,65 %
10.04.2019 02:40 7,9 C 6,7 C 6,1 C 73 % 1010,5 hPa 0,0 l/m 0 min 0 min 0 W/m 16,1 km/h (3 Bft) 95,74 %
10.04.2019 02:42 7,9 C 6,7 C 6,1 C 73 % 1010,5 hPa 0,0 l/m 0 min 0 min 0 W/m 9,7 km/h (2 Bft) 95,74 %
10.04.2019 02:44 7,9 C 6,7 C 6,1 C 73 % 1010,5 hPa 0,0 l/m 0 min 0 min 0 W/m 9,7 km/h (2 Bft) 93,62 %
10.04.2019 02:46 7,8 C 6,7 C 6,7 C 73 % 1010,6 hPa 0,0 l/m 0 min 0 min 0 W/m 19,3 km/h (3 Bft) 93,62 %
10.04.2019 02:48 7,8 C 6,7 C 6,1 C 73 % 1010,5 hPa 0,0 l/m 0 min 0 min 0 W/m 9,7 km/h (2 Bft) 95,74 %
10.04.2019 02:50 7,8 C 6,7 C 6,1 C 73 % 1010,6 hPa 0,0 l/m 0 min 0 min 0 W/m 12,9 km/h (3 Bft) 95,65 %
10.04.2019 02:52 7,7 C 6,7 C 6,1 C 73 % 1010,6 hPa 0,0 l/m 0 min 0 min 0 W/m 12,9 km/h (3 Bft) 93,62 %
10.04.2019 02:54 7,7 C 6,7 C 6,1 C 73 % 1010,6 hPa 0,0 l/m 0 min 0 min 0 W/m 12,9 km/h (3 Bft) 95,74 %
10.04.2019 02:56 7,7 C 6,7 C 6,1 C 73 % 1010,6 hPa 0,0 l/m 0 min 0 min 0 W/m 12,9 km/h (3 Bft) 95,74 %
10.04.2019 02:58 7,7 C 6,7 C 6,1 C 74 % 1010,6 hPa 0,0 l/m 0 min 0 min 0 W/m 16,1 km/h (3 Bft) 93,62 %
10.04.2019 03:00 7,6 C 6,7 C 6,1 C 74 % 1010,6 hPa 0,0 l/m 0 min 0 min 0 W/m 16,1 km/h (3 Bft) 95,74 %
10.04.2019 03:02 7,6 C 6,7 C 6,1 C 74 % 1010,6 hPa 0,0 l/m 0 min 0 min 0 W/m 12,9 km/h (3 Bft) 93,48 %
10.04.2019 03:04 7,6 C 6,7 C 6,1 C 74 % 1010,6 hPa 0,0 l/m 0 min 0 min 0 W/m 16,1 km/h (3 Bft) 95,74 %
10.04.2019 03:06 7,6 C 6,7 C 6,1 C 74 % 1010,5 hPa 0,0 l/m 0 min 0 min 0 W/m 12,9 km/h (3 Bft) 95,74 %
10.04.2019 03:08 7,5 C 6,7 C 6,1 C 74 % 1010,6 hPa 0,0 l/m 0 min 0 min 0 W/m 9,7 km/h (2 Bft) 95,74 %
10.04.2019 03:10 7,5 C 6,7 C 6,1 C 74 % 1010,6 hPa 0,0 l/m 0 min 0 min 0 W/m 16,1 km/h (3 Bft) 95,74 %
10.04.2019 03:12 7,4 C 6,7 C 6,1 C 74 % 1010,6 hPa 0,0 l/m 0 min 0 min 0 W/m 12,9 km/h (3 Bft) 97,87 %
10.04.2019 03:14 7,4 C 6,7 C 6,1 C 74 % 1010,5 hPa 0,0 l/m 0 min 0 min 0 W/m 9,7 km/h (2 Bft) 95,65 %
10.04.2019 03:16 7,4 C 6,7 C 6,1 C 74 % 1010,6 hPa 0,0 l/m 0 min 0 min 0 W/m 16,1 km/h (3 Bft) 97,87 %
10.04.2019 03:18 7,4 C 6,7 C 6,1 C 74 % 1010,6 hPa 0,0 l/m 0 min 0 min 0 W/m 12,9 km/h (3 Bft) 97,87 %
10.04.2019 03:20 7,3 C 6,1 C 6,1 C 75 % 1010,6 hPa 0,0 l/m 0 min 0 min 0 W/m 9,7 km/h (2 Bft) 95,74 %
10.04.2019 03:22 7,3 C 6,1 C 5,6 C 75 % 1010,5 hPa 0,0 l/m 0 min 0 min 0 W/m 12,9 km/h (3 Bft) 97,87 %
10.04.2019 03:24 7,3 C 6,1 C 5,6 C 75 % 1010,6 hPa 0,0 l/m 0 min 0 min 0 W/m 12,9 km/h (3 Bft) 100,00 %
10.04.2019 03:26 7,3 C 6,1 C 6,1 C 75 % 1010,6 hPa 0,0 l/m 0 min 0 min 0 W/m 19,3 km/h (3 Bft) 95,65 %
10.04.2019 03:28 7,2 C 6,1 C 6,1 C 75 % 1010,6 hPa 0,0 l/m 0 min 0 min 0 W/m 16,1 km/h (3 Bft) 100,00 %
10.04.2019 03:30 7,2 C 6,1 C 5,6 C 75 % 1010,5 hPa 0,0 l/m 0 min 0 min 0 W/m 12,9 km/h (3 Bft) 100,00 %
10.04.2019 03:32 7,2 C 6,1 C 5,6 C 75 % 1010,5 hPa 0,0 l/m 0 min 0 min 0 W/m 16,1 km/h (3 Bft) 100,00 %
10.04.2019 03:34 7,2 C 6,1 C 5,6 C 75 % 1010,6 hPa 0,0 l/m 0 min 0 min 0 W/m 12,9 km/h (3 Bft) 100,00 %
10.04.2019 03:36 7,1 C 6,1 C 5,6 C 75 % 1010,6 hPa 0,0 l/m 0 min 0 min 0 W/m 16,1 km/h (3 Bft) 97,83 %
10.04.2019 03:38 7,1 C 6,1 C 5,6 C 75 % 1010,5 hPa 0,0 l/m 0 min 0 min 0 W/m 19,3 km/h (3 Bft) 100,00 %
10.04.2019 03:40 7,1 C 6,1 C 5,6 C 75 % 1010,6 hPa 0,0 l/m 0 min 0 min 0 W/m 16,1 km/h (3 Bft) 97,87 %
10.04.2019 03:42 7,1 C 6,1 C 5,6 C 75 % 1010,5 hPa 0,0 l/m 0 min 0 min 0 W/m 12,9 km/h (3 Bft) 100,00 %
10.04.2019 03:44 7,1 C 6,1 C 5,6 C 75 % 1010,6 hPa 0,0 l/m 0 min 0 min 0 W/m 19,3 km/h (3 Bft) 97,87 %
10.04.2019 03:46 7,0 C 6,1 C 5,6 C 75 % 1010,6 hPa 0,0 l/m 0 min 0 min 0 W/m 12,9 km/h (3 Bft) 97,87 %
10.04.2019 03:48 7,0 C 6,1 C 5,6 C 75 % 1010,5 hPa 0,0 l/m 0 min 0 min 0 W/m 16,1 km/h (3 Bft) 100,00 %
10.04.2019 03:50 7,0 C 6,1 C 5,6 C 75 % 1010,6 hPa 0,0 l/m 0 min 0 min 0 W/m 12,9 km/h (3 Bft) 100,00 %
10.04.2019 03:52 6,9 C 6,1 C 5,6 C 75 % 1010,5 hPa 0,0 l/m 0 min 0 min 0 W/m 16,1 km/h (3 Bft) 100,00 %
10.04.2019 03:54 6,9 C 6,1 C 5,6 C 75 % 1010,5 hPa 0,0 l/m 0 min 0 min 0 W/m 12,9 km/h (3 Bft) 97,87 %
10.04.2019 03:56 6,9 C 6,1 C 5,6 C 75 % 1010,5 hPa 0,0 l/m 0 min 0 min 0 W/m 19,3 km/h (3 Bft) 95,74 %
10.04.2019 03:58 6,9 C 6,1 C 5,6 C 75 % 1010,5 hPa 0,0 l/m 0 min 0 min 0 W/m 12,9 km/h (3 Bft) 97,87 %
10.04.2019 04:00 6,9 C 6,1 C 5,6 C 75 % 1010,5 hPa 0,0 l/m 0 min 0 min 0 W/m 12,9 km/h (3 Bft) 95,65 %
10.04.2019 04:05 6,8 C 6,1 C 5,6 C 75 % 1010,5 hPa 0,0 l/m 0 min 0 min 0 W/m 12,9 km/h (3 Bft) 100,00 %
10.04.2019 04:06 6,8 C 6,1 C 5,6 C 75 % 1010,6 hPa 0,0 l/m 0 min 0 min 0 W/m 12,9 km/h (3 Bft) 100,00 %
10.04.2019 04:08 6,8 C 6,1 C 5,6 C 75 % 1010,6 hPa 0,0 l/m 0 min 0 min 0 W/m 12,9 km/h (3 Bft) 100,00 %
10.04.2019 04:10 6,8 C 6,1 C 5,6 C 75 % 1010,6 hPa 0,0 l/m 0 min 0 min 0 W/m 12,9 km/h (3 Bft) 97,87 %
10.04.2019 04:12 6,8 C 6,1 C 5,6 C 75 % 1010,6 hPa 0,0 l/m 0 min 0 min 0 W/m 16,1 km/h (3 Bft) 97,83 %
10.04.2019 04:14 6,8 C 6,1 C 5,6 C 75 % 1010,6 hPa 0,0 l/m 0 min 0 min 0 W/m 12,9 km/h (3 Bft) 97,87 %
10.04.2019 04:16 6,7 C 5,6 C 5,6 C 75 % 1010,6 hPa 0,0 l/m 0 min 0 min 0 W/m 12,9 km/h (3 Bft) 97,87 %
10.04.2019 04:18 6,7 C 5,6 C 5,6 C 75 % 1010,6 hPa 0,0 l/m 0 min 0 min 0 W/m 16,1 km/h (3 Bft) 97,87 %
10.04.2019 04:20 6,7 C 5,6 C 5,6 C 75 % 1010,6 hPa 0,0 l/m 0 min 0 min 0 W/m 19,3 km/h (3 Bft) 93,62 %
10.04.2019 04:22 6,7 C 5,6 C 5,6 C 75 % 1010,6 hPa 0,0 l/m 0 min 0 min 0 W/m 16,1 km/h (3 Bft) 97,87 %
10.04.2019 04:24 6,6 C 5,6 C 5,0 C 75 % 1010,6 hPa 0,0 l/m 0 min 0 min 0 W/m 16,1 km/h (3 Bft) 97,83 %
10.04.2019 04:26 6,6 C 5,6 C 5,0 C 75 % 1010,6 hPa 0,0 l/m 0 min 0 min 0 W/m 16,1 km/h (3 Bft) 97,87 %
10.04.2019 04:28 6,6 C 5,6 C 5,0 C 75 % 1010,6 hPa 0,0 l/m 0 min 0 min 0 W/m 12,9 km/h (3 Bft) 95,74 %
10.04.2019 04:30 6,6 C 5,6 C 5,0 C 76 % 1010,7 hPa 0,0 l/m 0 min 0 min 0 W/m 12,9 km/h (3 Bft) 97,87 %
10.04.2019 04:32 6,6 C 5,6 C 5,0 C 75 % 1010,7 hPa 0,0 l/m 0 min 0 min 0 W/m 9,7 km/h (2 Bft) 95,74 %
10.04.2019 04:34 6,5 C 5,6 C 5,0 C 75 % 1010,6 hPa 0,0 l/m 0 min 0 min 0 W/m 16,1 km/h (3 Bft) 97,83 %
10.04.2019 04:36 6,5 C 5,6 C 5,0 C 75 % 1010,6 hPa 0,0 l/m 0 min 0 min 0 W/m 16,1 km/h (3 Bft) 97,87 %
10.04.2019 04:38 6,4 C 5,6 C 5,0 C 75 % 1010,6 hPa 0,0 l/m 0 min 0 min 0 W/m 9,7 km/h (2 Bft) 93,62 %
10.04.2019 04:40 6,4 C 5,6 C 5,0 C 75 % 1010,6 hPa 0,0 l/m 0 min 0 min 0 W/m 22,5 km/h (4 Bft) 97,87 %
10.04.2019 04:42 6,4 C 5,6 C 5,0 C 75 % 1010,5 hPa 0,0 l/m 0 min 0 min 0 W/m 16,1 km/h (3 Bft) 95,74 %
10.04.2019 04:44 6,4 C 5,6 C 5,0 C 75 % 1010,6 hPa 0,0 l/m 0 min 0 min 0 W/m 19,3 km/h (3 Bft) 97,87 %
10.04.2019 04:46 6,4 C 5,6 C 5,0 C 75 % 1010,7 hPa 0,0 l/m 0 min 0 min 0 W/m 16,1 km/h (3 Bft) 97,83 %
10.04.2019 04:48 6,4 C 5,6 C 5,0 C 75 % 1010,6 hPa 0,0 l/m 0 min 0 min 0 W/m 12,9 km/h (3 Bft) 97,87 %
10.04.2019 04:50 6,3 C 5,6 C 5,0 C 76 % 1010,6 hPa 0,0 l/m 0 min 0 min 0 W/m 16,1 km/h (3 Bft) 97,87 %
10.04.2019 04:52 6,3 C 5,6 C 5,0 C 76 % 1010,6 hPa 0,0 l/m 0 min 0 min 0 W/m 12,9 km/h (3 Bft) 97,87 %
10.04.2019 04:54 6,3 C 5,6 C 5,0 C 76 % 1010,6 hPa 0,0 l/m 0 min 0 min 0 W/m 22,5 km/h (4 Bft) 100,00 %
10.04.2019 04:56 6,3 C 5,6 C 5,0 C 76 % 1010,6 hPa 0,0 l/m 0 min 0 min 0 W/m 9,7 km/h (2 Bft) 100,00 %
10.04.2019 04:58 6,2 C 5,0 C 5,0 C 76 % 1010,6 hPa 0,0 l/m 0 min 0 min 0 W/m 9,7 km/h (2 Bft) 100,00 %
10.04.2019 05:00 6,2 C 5,0 C 4,4 C 76 % 1010,6 hPa 0,0 l/m 0 min 0 min 0 W/m 16,1 km/h (3 Bft) 97,87 %
10.04.2019 05:02 6,2 C 5,0 C 4,4 C 76 % 1010,6 hPa 0,0 l/m 0 min 0 min 0 W/m 12,9 km/h (3 Bft) 97,87 %
10.04.2019 05:04 6,1 C 5,0 C 4,4 C 76 % 1010,7 hPa 0,0 l/m 0 min 0 min 0 W/m 9,7 km/h (2 Bft) 100,00 %
10.04.2019 05:05 6,1 C 5,0 C 4,4 C 76 % 1010,7 hPa 0,0 l/m 0 min 0 min 0 W/m 16,1 km/h (3 Bft) 100,00 %
10.04.2019 05:10 6,1 C 5,0 C 4,4 C 76 % 1010,7 hPa 0,0 l/m 0 min 0 min 0 W/m 12,9 km/h (3 Bft) 100,00 %
10.04.2019 05:12 6,0 C 5,0 C 4,4 C 76 % 1010,7 hPa 0,0 l/m 0 min 0 min 0 W/m 19,3 km/h (3 Bft) 100,00 %
10.04.2019 05:14 6,0 C 5,0 C 4,4 C 76 % 1010,7 hPa 0,0 l/m 0 min 0 min 0 W/m 9,7 km/h (2 Bft) 97,87 %
10.04.2019 05:19 5,9 C 5,0 C 4,4 C 77 % 1010,8 hPa 0,0 l/m 0 min 0 min 0 W/m 16,1 km/h (3 Bft) 83,33 %
10.04.2019 05:20 5,9 C 5,0 C 4,4 C 77 % 1010,8 hPa 0,0 l/m 0 min 0 min 0 W/m 6,4 km/h (2 Bft) 100,00 %
10.04.2019 05:22 5,8 C 5,0 C 4,4 C 77 % 1010,8 hPa 0,0 l/m 0 min 0 min 0 W/m 29,0 km/h (5 Bft) 97,96 %
10.04.2019 05:24 5,8 C 4,4 C 4,4 C 77 % 1010,9 hPa 0,0 l/m 0 min 0 min 0 W/m 9,7 km/h (2 Bft) 97,87 %
10.04.2019 05:26 5,8 C 4,4 C 4,4 C 77 % 1010,9 hPa 0,0 l/m 0 min 0 min 0 W/m 9,7 km/h (2 Bft) 97,87 %
10.04.2019 05:28 5,8 C 4,4 C 4,4 C 77 % 1010,9 hPa 0,0 l/m 0 min 0 min 0 W/m 9,7 km/h (2 Bft) 97,87 %
10.04.2019 05:30 5,7 C 4,4 C 4,4 C 77 % 1010,8 hPa 0,0 l/m 0 min 0 min 0 W/m 12,9 km/h (3 Bft) 97,87 %
10.04.2019 05:32 5,7 C 4,4 C 3,9 C 77 % 1010,8 hPa 0,0 l/m 0 min 0 min 0 W/m 9,7 km/h (2 Bft) 95,35 %
10.04.2019 05:34 5,7 C 4,4 C 3,9 C 77 % 1010,8 hPa 0,0 l/m 0 min 0 min 0 W/m 9,7 km/h (2 Bft) 97,96 %
10.04.2019 05:36 5,6 C 4,4 C 3,9 C 77 % 1010,8 hPa 0,0 l/m 0 min 0 min 0 W/m 12,9 km/h (3 Bft) 98,33 %
10.04.2019 05:38 5,6 C 4,4 C 3,9 C 77 % 1010,9 hPa 0,0 l/m 0 min 0 min 0 W/m 16,1 km/h (3 Bft) 97,14 %
10.04.2019 05:40 5,6 C 4,4 C 3,9 C 77 % 1010,8 hPa 0,0 l/m 0 min 0 min 0 W/m 9,7 km/h (2 Bft) 95,74 %
10.04.2019 05:42 5,5 C 4,4 C 3,9 C 77 % 1010,8 hPa 0,0 l/m 0 min 0 min 0 W/m 16,1 km/h (3 Bft) 97,87 %
10.04.2019 05:44 5,5 C 4,4 C 3,9 C 78 % 1010,9 hPa 0,0 l/m 0 min 0 min 0 W/m 12,9 km/h (3 Bft) 97,87 %
10.04.2019 05:46 5,4 C 4,4 C 3,9 C 78 % 1010,8 hPa 0,0 l/m 0 min 0 min 0 W/m 16,1 km/h (3 Bft) 97,87 %
10.04.2019 05:48 5,4 C 4,4 C 3,9 C 78 % 1011,0 hPa 0,0 l/m 0 min 0 min 0 W/m 19,3 km/h (3 Bft) 97,56 %
10.04.2019 05:50 5,4 C 4,4 C 3,9 C 78 % 1010,9 hPa 0,0 l/m 0 min 0 min 0 W/m 12,9 km/h (3 Bft) 95,92 %
10.04.2019 05:52 5,4 C 4,4 C 3,9 C 78 % 1011,0 hPa 0,0 l/m 0 min 0 min 0 W/m 9,7 km/h (2 Bft) 97,92 %
10.04.2019 05:54 5,3 C 4,4 C 3,9 C 78 % 1011,0 hPa 0,0 l/m 0 min 0 min 0 W/m 12,9 km/h (3 Bft) 97,96 %
10.04.2019 05:56 5,3 C 4,4 C 3,9 C 78 % 1011,1 hPa 0,0 l/m 0 min 0 min 0 W/m 12,9 km/h (3 Bft) 97,87 %
10.04.2019 05:58 5,3 C 4,4 C 3,9 C 78 % 1011,1 hPa 0,0 l/m 0 min 0 min 0 W/m 12,9 km/h (3 Bft) 97,87 %
10.04.2019 06:00 5,3 C 4,4 C 3,9 C 78 % 1011,0 hPa 0,0 l/m 0 min 0 min 0 W/m 16,1 km/h (3 Bft) 97,83 %
10.04.2019 06:02 5,2 C 4,4 C 3,9 C 78 % 1011,0 hPa 0,0 l/m 0 min 0 min 0 W/m 12,9 km/h (3 Bft) 95,74 %
10.04.2019 06:04 5,2 C 4,4 C 3,9 C 79 % 1011,0 hPa 0,0 l/m 0 min 0 min 0 W/m 12,9 km/h (3 Bft) 97,87 %
10.04.2019 06:08 5,1 C 3,9 C 3,9 C 79 % 1011,1 hPa 0,0 l/m 0 min 0 min 0 W/m 16,1 km/h (3 Bft) 97,78 %
10.04.2019 06:10 5,1 C 3,9 C 3,9 C 79 % 1011,1 hPa 0,0 l/m 0 min 0 min 0 W/m 12,9 km/h (3 Bft) 97,87 %
10.04.2019 06:12 5,1 C 3,9 C 3,9 C 79 % 1011,1 hPa 0,0 l/m 0 min 0 min 0 W/m 16,1 km/h (3 Bft) 97,96 %
10.04.2019 06:14 5,0 C 3,9 C 3,9 C 79 % 1011,2 hPa 0,0 l/m 0 min 0 min 0 W/m 12,9 km/h (3 Bft) 97,92 %
10.04.2019 06:16 5,0 C 3,9 C 3,9 C 79 % 1011,1 hPa 0,0 l/m 0 min 0 min 0 W/m 12,9 km/h (3 Bft) 97,87 %
10.04.2019 06:18 5,0 C 3,9 C 3,9 C 79 % 1011,2 hPa 0,0 l/m 0 min 0 min 0 W/m 19,3 km/h (3 Bft) 97,62 %
10.04.2019 06:20 4,9 C 3,9 C 3,9 C 79 % 1011,2 hPa 0,0 l/m 0 min 0 min 0 W/m 16,1 km/h (3 Bft) 93,88 %
10.04.2019 06:22 4,9 C 3,9 C 3,9 C 79 % 1011,2 hPa 0,0 l/m 0 min 0 min 0 W/m 22,5 km/h (4 Bft) 91,84 %
10.04.2019 06:24 4,9 C 3,9 C 3,3 C 79 % 1011,2 hPa 0,0 l/m 0 min 0 min 0 W/m 12,9 km/h (3 Bft) 97,87 %
10.04.2019 06:26 4,9 C 3,9 C 3,3 C 79 % 1011,1 hPa 0,0 l/m 0 min 0 min 0 W/m 16,1 km/h (3 Bft) 97,87 %
10.04.2019 06:28 4,8 C 3,9 C 3,3 C 79 % 1011,2 hPa 0,0 l/m 0 min 0 min 0 W/m 16,1 km/h (3 Bft) 95,74 %
10.04.2019 06:30 4,8 C 3,9 C 3,3 C 79 % 1011,2 hPa 0,0 l/m 0 min 0 min 0 W/m 12,9 km/h (3 Bft) 95,74 %
10.04.2019 06:32 4,8 C 3,9 C 3,3 C 79 % 1011,3 hPa 0,0 l/m 0 min 0 min 0 W/m 16,1 km/h (3 Bft) 93,62 %
10.04.2019 06:34 4,8 C 3,9 C 3,3 C 79 % 1011,2 hPa 0,0 l/m 0 min 0 min 0 W/m 16,1 km/h (3 Bft) 95,24 %
10.04.2019 06:36 4,7 C 3,9 C 3,3 C 79 % 1011,3 hPa 0,0 l/m 0 min 0 min 0 W/m 16,1 km/h (3 Bft) 96,67 %
10.04.2019 06:38 4,7 C 3,9 C 3,3 C 79 % 1011,3 hPa 0,0 l/m 0 min 0 min 0 W/m 12,9 km/h (3 Bft) 94,29 %
10.04.2019 06:40 4,7 C 3,9 C 3,3 C 80 % 1011,3 hPa 0,0 l/m 0 min 0 min 0 W/m 12,9 km/h (3 Bft) 95,92 %
10.04.2019 06:42 4,6 C 3,9 C 3,3 C 80 % 1011,4 hPa 0,0 l/m 0 min 0 min 0 W/m 19,3 km/h (3 Bft) 95,83 %
10.04.2019 06:44 4,6 C 3,9 C 3,3 C 80 % 1011,4 hPa 0,0 l/m 0 min 0 min 0 W/m 19,3 km/h (3 Bft) 95,74 %
10.04.2019 06:46 4,6 C 3,9 C 3,3 C 80 % 1011,4 hPa 0,0 l/m 0 min 0 min 0 W/m 16,1 km/h (3 Bft) 95,65 %
10.04.2019 06:48 4,6 C 3,9 C 3,3 C 80 % 1011,4 hPa 0,0 l/m 0 min 0 min 1 W/m 16,1 km/h (3 Bft) 95,35 %
10.04.2019 06:50 4,5 C 3,3 C 3,3 C 80 % 1011,5 hPa 0,0 l/m 0 min 0 min 5 W/m 12,9 km/h (3 Bft) 95,83 %
10.04.2019 06:52 4,5 C 3,3 C 3,3 C 80 % 1011,5 hPa 0,0 l/m 0 min 0 min 5 W/m 19,3 km/h (3 Bft) 89,80 %
10.04.2019 06:54 4,4 C 3,3 C 3,3 C 80 % 1011,5 hPa 0,0 l/m 0 min 0 min 6 W/m 12,9 km/h (3 Bft) 95,83 %
10.04.2019 06:56 4,4 C 3,3 C 3,3 C 80 % 1011,5 hPa 0,0 l/m 0 min 0 min 7 W/m 12,9 km/h (3 Bft) 95,74 %
10.04.2019 06:58 4,4 C 3,3 C 3,3 C 80 % 1011,5 hPa 0,0 l/m 0 min 0 min 8 W/m 12,9 km/h (3 Bft) 95,65 %
10.04.2019 07:00 4,4 C 3,3 C 3,3 C 80 % 1011,5 hPa 0,0 l/m 0 min 0 min 9 W/m 12,9 km/h (3 Bft) 95,74 %
10.04.2019 07:02 4,4 C 3,3 C 3,3 C 80 % 1011,5 hPa 0,0 l/m 0 min 0 min 11 W/m 16,1 km/h (3 Bft) 95,12 %
10.04.2019 07:04 4,3 C 3,3 C 3,3 C 80 % 1011,5 hPa 0,0 l/m 0 min 0 min 11 W/m 12,9 km/h (3 Bft) 95,74 %
10.04.2019 07:06 4,3 C 3,3 C 2,8 C 80 % 1011,6 hPa 0,0 l/m 0 min 0 min 12 W/m 12,9 km/h (3 Bft) 94,92 %
10.04.2019 07:08 4,3 C 3,3 C 2,8 C 80 % 1011,6 hPa 0,0 l/m 0 min 0 min 14 W/m 16,1 km/h (3 Bft) 97,14 %
10.04.2019 07:10 4,3 C 3,3 C 2,8 C 80 % 1011,6 hPa 0,0 l/m 0 min 0 min 15 W/m 9,7 km/h (2 Bft) 95,74 %
10.04.2019 07:12 4,2 C 3,3 C 2,8 C 80 % 1011,6 hPa 0,0 l/m 0 min 0 min 16 W/m 12,9 km/h (3 Bft) 97,83 %
10.04.2019 07:14 4,2 C 3,3 C 2,8 C 80 % 1011,7 hPa 0,0 l/m 0 min 0 min 18 W/m 9,7 km/h (2 Bft) 97,87 %
10.04.2019 07:16 4,2 C 3,3 C 2,8 C 81 % 1011,7 hPa 0,0 l/m 0 min 0 min 18 W/m 6,4 km/h (2 Bft) 95,74 %
10.04.2019 07:18 4,2 C 3,3 C 2,8 C 81 % 1011,8 hPa 0,0 l/m 0 min 0 min 19 W/m 16,1 km/h (3 Bft) 95,74 %
10.04.2019 07:20 4,2 C 3,3 C 2,8 C 81 % 1011,8 hPa 0,0 l/m 0 min 0 min 20 W/m 12,9 km/h (3 Bft) 97,87 %
10.04.2019 07:22 4,2 C 3,3 C 2,8 C 81 % 1011,9 hPa 0,0 l/m 0 min 0 min 21 W/m 9,7 km/h (2 Bft) 97,87 %
10.04.2019 07:24 4,2 C 3,3 C 2,8 C 81 % 1012,0 hPa 0,0 l/m 0 min 0 min 22 W/m 9,7 km/h (2 Bft) 100,00 %
10.04.2019 07:26 4,2 C 3,3 C 2,8 C 81 % 1012,0 hPa 0,0 l/m 0 min 0 min 24 W/m 9,7 km/h (2 Bft) 100,00 %
10.04.2019 07:28 4,1 C 3,3 C 3,3 C 81 % 1012,0 hPa 0,0 l/m 0 min 0 min 25 W/m 9,7 km/h (2 Bft) 93,62 %
10.04.2019 07:30 4,1 C 3,3 C 3,3 C 81 % 1012,0 hPa 0,0 l/m 0 min 0 min 26 W/m 16,1 km/h (3 Bft) 97,87 %
10.04.2019 07:32 4,1 C 3,3 C 3,3 C 81 % 1012,0 hPa 0,0 l/m 0 min 0 min 26 W/m 12,9 km/h (3 Bft) 97,87 %
10.04.2019 07:34 4,1 C 3,3 C 3,3 C 81 % 1012,0 hPa 0,0 l/m 0 min 0 min 28 W/m 9,7 km/h (2 Bft) 100,00 %
10.04.2019 07:36 4,1 C 3,3 C 3,3 C 81 % 1012,0 hPa 0,0 l/m 0 min 0 min 29 W/m 12,9 km/h (3 Bft) 98,33 %
10.04.2019 07:38 4,1 C 3,9 C 3,3 C 81 % 1012,0 hPa 0,0 l/m 0 min 0 min 30 W/m 12,9 km/h (3 Bft) 97,87 %
10.04.2019 07:40 4,1 C 3,9 C 3,3 C 81 % 1012,0 hPa 0,0 l/m 0 min 0 min 30 W/m 19,3 km/h (3 Bft) 97,14 %
10.04.2019 07:42 4,1 C 3,9 C 3,3 C 81 % 1012,1 hPa 0,0 l/m 0 min 0 min 31 W/m 12,9 km/h (3 Bft) 95,74 %
10.04.2019 07:44 4,1 C 3,9 C 3,3 C 81 % 1012,1 hPa 0,0 l/m 0 min 0 min 32 W/m 12,9 km/h (3 Bft) 97,87 %
10.04.2019 07:46 4,1 C 3,9 C 3,3 C 81 % 1012,1 hPa 0,0 l/m 0 min 0 min 33 W/m 12,9 km/h (3 Bft) 97,87 %
10.04.2019 07:48 4,1 C 3,9 C 3,3 C 81 % 1012,1 hPa 0,0 l/m 0 min 0 min 34 W/m 12,9 km/h (3 Bft) 97,83 %
10.04.2019 07:50 4,1 C 3,9 C 3,3 C 81 % 1012,1 hPa 0,0 l/m 0 min 0 min 35 W/m 12,9 km/h (3 Bft) 100,00 %
10.04.2019 07:52 4,1 C 3,9 C 3,3 C 81 % 1012,2 hPa 0,0 l/m 0 min 0 min 35 W/m 16,1 km/h (3 Bft) 100,00 %
10.04.2019 07:54 4,1 C 3,9 C 3,3 C 81 % 1012,1 hPa 0,0 l/m 0 min 0 min 36 W/m 9,7 km/h (2 Bft) 100,00 %
10.04.2019 07:56 4,1 C 3,9 C 3,3 C 81 % 1012,2 hPa 0,0 l/m 0 min 0 min 37 W/m 16,1 km/h (3 Bft) 100,00 %
10.04.2019 07:58 4,1 C 3,9 C 3,3 C 81 % 1012,3 hPa 0,0 l/m 0 min 0 min 38 W/m 9,7 km/h (2 Bft) 100,00 %
10.04.2019 08:00 4,1 C 3,9 C 3,3 C 81 % 1012,3 hPa 0,0 l/m 0 min 0 min 39 W/m 9,7 km/h (2 Bft) 100,00 %
10.04.2019 08:02 4,1 C 3,9 C 3,3 C 81 % 1012,3 hPa 0,0 l/m 0 min 0 min 39 W/m 9,7 km/h (2 Bft) 100,00 %
10.04.2019 08:04 4,1 C 3,9 C 3,3 C 81 % 1012,4 hPa 0,0 l/m 0 min 0 min 40 W/m 12,9 km/h (3 Bft) 97,87 %
10.04.2019 08:06 4,1 C 3,9 C 3,3 C 81 % 1012,4 hPa 0,0 l/m 0 min 0 min 40 W/m 12,9 km/h (3 Bft) 96,61 %
10.04.2019 08:08 4,1 C 3,9 C 3,3 C 81 % 1012,4 hPa 0,0 l/m 0 min 0 min 42 W/m 16,1 km/h (3 Bft) 97,83 %
10.04.2019 08:10 4,1 C 3,9 C 3,3 C 81 % 1012,3 hPa 0,0 l/m 0 min 0 min 42 W/m 16,1 km/h (3 Bft) 97,22 %
10.04.2019 08:12 4,1 C 3,9 C 3,3 C 81 % 1012,3 hPa 0,0 l/m 0 min 0 min 43 W/m 9,7 km/h (2 Bft) 95,65 %
10.04.2019 08:14 4,2 C 3,9 C 3,3 C 81 % 1012,3 hPa 0,0 l/m 0 min 0 min 44 W/m 9,7 km/h (2 Bft) 97,87 %
10.04.2019 08:16 4,2 C 3,9 C 3,3 C 81 % 1012,3 hPa 0,0 l/m 0 min 0 min 44 W/m 22,5 km/h (4 Bft) 97,87 %
10.04.2019 08:18 4,2 C 3,9 C 3,3 C 81 % 1012,3 hPa 0,0 l/m 0 min 0 min 45 W/m 12,9 km/h (3 Bft) 97,87 %
10.04.2019 08:20 4,2 C 3,9 C 3,3 C 81 % 1012,3 hPa 0,0 l/m 0 min 0 min 46 W/m 16,1 km/h (3 Bft) 97,87 %
10.04.2019 08:22 4,2 C 3,9 C 3,3 C 81 % 1012,3 hPa 0,0 l/m 0 min 0 min 46 W/m 16,1 km/h (3 Bft) 97,83 %
10.04.2019 08:24 4,2 C 3,9 C 3,3 C 81 % 1012,3 hPa 0,0 l/m 0 min 0 min 47 W/m 12,9 km/h (3 Bft) 95,74 %
10.04.2019 08:26 4,2 C 3,9 C 3,3 C 81 % 1012,3 hPa 0,0 l/m 0 min 0 min 47 W/m 25,7 km/h (4 Bft) 95,74 %
10.04.2019 08:28 4,2 C 4,4 C 3,3 C 80 % 1012,3 hPa 0,0 l/m 0 min 0 min 48 W/m 9,7 km/h (2 Bft) 97,87 %
10.04.2019 08:30 4,2 C 4,4 C 3,9 C 80 % 1012,4 hPa 0,0 l/m 0 min 0 min 49 W/m 9,7 km/h (2 Bft) 97,87 %
10.04.2019 08:32 4,2 C 4,4 C 3,9 C 80 % 1012,4 hPa 0,0 l/m 0 min 0 min 49 W/m 12,9 km/h (3 Bft) 95,74 %
10.04.2019 08:34 4,3 C 4,4 C 3,9 C 80 % 1012,4 hPa 0,0 l/m 0 min 0 min 51 W/m 12,9 km/h (3 Bft) 97,83 %
10.04.2019 08:36 4,3 C 4,4 C 3,9 C 80 % 1012,4 hPa 0,0 l/m 0 min 0 min 51 W/m 16,1 km/h (3 Bft) 96,61 %
10.04.2019 08:38 4,3 C 4,4 C 3,9 C 80 % 1012,4 hPa 0,0 l/m 0 min 0 min 51 W/m 12,9 km/h (3 Bft) 93,62 %
10.04.2019 08:40 4,3 C 4,4 C 3,9 C 80 % 1012,4 hPa 0,0 l/m 0 min 0 min 52 W/m 12,9 km/h (3 Bft) 100,00 %
10.04.2019 08:42 4,3 C 4,4 C 3,9 C 80 % 1012,4 hPa 0,0 l/m 0 min 0 min 53 W/m 16,1 km/h (3 Bft) 97,87 %
10.04.2019 08:44 4,4 C 4,4 C 3,9 C 80 % 1012,4 hPa 0,0 l/m 0 min 0 min 54 W/m 16,1 km/h (3 Bft) 95,74 %
10.04.2019 08:46 4,4 C 4,4 C 3,9 C 80 % 1012,4 hPa 0,0 l/m 0 min 0 min 54 W/m 16,1 km/h (3 Bft) 93,48 %
10.04.2019 08:48 4,4 C 4,4 C 3,9 C 80 % 1012,4 hPa 0,0 l/m 0 min 0 min 54 W/m 19,3 km/h (3 Bft) 97,87 %
10.04.2019 08:50 4,4 C 4,4 C 3,9 C 80 % 1012,4 hPa 0,0 l/m 0 min 0 min 56 W/m 9,7 km/h (2 Bft) 97,87 %
10.04.2019 08:52 4,5 C 5,0 C 3,9 C 79 % 1012,4 hPa 0,0 l/m 0 min 0 min 56 W/m 19,3 km/h (3 Bft) 97,87 %
10.04.2019 08:54 4,5 C 5,0 C 3,9 C 79 % 1012,5 hPa 0,0 l/m 0 min 0 min 58 W/m 12,9 km/h (3 Bft) 97,87 %
10.04.2019 08:56 4,6 C 5,0 C 3,9 C 79 % 1012,5 hPa 0,0 l/m 0 min 0 min 58 W/m 32,2 km/h (5 Bft) 95,65 %
10.04.2019 08:58 4,6 C 5,0 C 4,4 C 79 % 1012,4 hPa 0,0 l/m 0 min 0 min 58 W/m 12,9 km/h (3 Bft) 97,87 %
10.04.2019 09:00 4,6 C 5,0 C 4,4 C 79 % 1012,4 hPa 0,0 l/m 0 min 0 min 60 W/m 12,9 km/h (3 Bft) 95,74 %
10.04.2019 09:02 4,7 C 5,0 C 4,4 C 79 % 1012,4 hPa 0,0 l/m 0 min 0 min 60 W/m 16,1 km/h (3 Bft) 93,62 %
10.04.2019 09:04 4,7 C 5,6 C 4,4 C 78 % 1012,5 hPa 0,0 l/m 0 min 0 min 62 W/m 25,7 km/h (4 Bft) 97,87 %
10.04.2019 09:06 4,8 C 7,2 C 4,4 C 78 % 1012,5 hPa 0,0 l/m 0 min 0 min 62 W/m 16,1 km/h (3 Bft) 96,55 %
10.04.2019 09:08 4,8 C 7,2 C 4,4 C 78 % 1012,5 hPa 0,0 l/m 0 min 0 min 62 W/m 12,9 km/h (3 Bft) 97,87 %
10.04.2019 09:10 4,9 C 6,7 C 4,4 C 78 % 1012,5 hPa 0,0 l/m 0 min 0 min 63 W/m 12,9 km/h (3 Bft) 97,14 %
10.04.2019 09:12 5,0 C 7,2 C 4,4 C 78 % 1012,5 hPa 0,0 l/m 0 min 0 min 63 W/m 9,7 km/h (2 Bft) 95,74 %
10.04.2019 09:14 5,1 C 8,3 C 5,0 C 78 % 1012,6 hPa 0,0 l/m 0 min 0 min 65 W/m 16,1 km/h (3 Bft) 97,87 %
10.04.2019 09:16 5,1 C 9,4 C 5,0 C 78 % 1012,6 hPa 0,0 l/m 0 min 0 min 65 W/m 16,1 km/h (3 Bft) 97,87 %
10.04.2019 09:18 5,2 C 10,0 C 5,0 C 77 % 1012,6 hPa 0,0 l/m 0 min 0 min 66 W/m 12,9 km/h (3 Bft) 97,87 %
10.04.2019 09:20 5,3 C 10,6 C 5,0 C 77 % 1012,7 hPa 0,0 l/m 0 min 0 min 67 W/m 16,1 km/h (3 Bft) 97,87 %
10.04.2019 09:22 5,4 C 10,6 C 5,0 C 78 % 1012,7 hPa 0,0 l/m 0 min 0 min 68 W/m 9,7 km/h (2 Bft) 97,83 %
10.04.2019 09:24 5,5 C 10,6 C 5,0 C 77 % 1012,7 hPa 0,0 l/m 0 min 0 min 69 W/m 16,1 km/h (3 Bft) 95,74 %
10.04.2019 09:26 5,7 C 10,6 C 5,6 C 77 % 1012,7 hPa 0,0 l/m 0 min 0 min 70 W/m 12,9 km/h (3 Bft) 97,87 %
10.04.2019 09:28 5,8 C 11,1 C 5,6 C 76 % 1012,7 hPa 0,0 l/m 0 min 0 min 72 W/m 12,9 km/h (3 Bft) 97,87 %
10.04.2019 09:30 5,9 C 11,1 C 5,6 C 76 % 1012,7 hPa 0,0 l/m 0 min 0 min 70 W/m 16,1 km/h (3 Bft) 95,74 %
10.04.2019 09:32 6,0 C 11,7 C 5,6 C 76 % 1012,7 hPa 0,0 l/m 0 min 0 min 70 W/m 12,9 km/h (3 Bft) 97,83 %
10.04.2019 09:34 6,2 C 12,2 C 6,1 C 76 % 1012,7 hPa 0,0 l/m 0 min 0 min 72 W/m 19,3 km/h (3 Bft) 97,87 %
10.04.2019 09:36 6,3 C 12,2 C 6,1 C 76 % 1012,7 hPa 0,0 l/m 0 min 0 min 72 W/m 12,9 km/h (3 Bft) 96,61 %
10.04.2019 09:38 6,4 C 12,8 C 6,7 C 75 % 1012,7 hPa 0,0 l/m 0 min 0 min 72 W/m 9,7 km/h (2 Bft) 100,00 %
10.04.2019 09:40 6,6 C 12,8 C 6,7 C 75 % 1012,8 hPa 0,0 l/m 0 min 0 min 74 W/m 12,9 km/h (3 Bft) 95,74 %
10.04.2019 09:42 6,7 C 12,8 C 7,2 C 74 % 1012,8 hPa 0,0 l/m 0 min 0 min 74 W/m 16,1 km/h (3 Bft) 95,74 %
10.04.2019 09:44 6,8 C 12,2 C 8,9 C 74 % 1012,8 hPa 0,0 l/m 0 min 0 min 76 W/m 16,1 km/h (3 Bft) 95,65 %
10.04.2019 09:46 6,9 C 12,2 C 10,0 C 73 % 1012,8 hPa 0,0 l/m 0 min 0 min 77 W/m 22,5 km/h (4 Bft) 95,74 %
10.04.2019 09:48 7,1 C 12,2 C 11,1 C 73 % 1012,9 hPa 0,0 l/m 0 min 0 min 77 W/m 12,9 km/h (3 Bft) 95,74 %
10.04.2019 09:50 7,2 C 12,2 C 11,7 C 72 % 1012,9 hPa 0,0 l/m 0 min 0 min 79 W/m 19,3 km/h (3 Bft) 95,74 %
10.04.2019 09:52 7,3 C 13,3 C 12,2 C 72 % 1012,9 hPa 0,0 l/m 0 min 0 min 88 W/m 12,9 km/h (3 Bft) 95,74 %
10.04.2019 09:54 7,4 C 13,3 C 12,8 C 72 % 1012,9 hPa 0,0 l/m 0 min 0 min 104 W/m 12,9 km/h (3 Bft) 93,62 %
10.04.2019 09:56 7,6 C 13,3 C 12,8 C 72 % 1012,9 hPa 0,0 l/m 0 min 0 min 128 W/m 16,1 km/h (3 Bft) 93,48 %
10.04.2019 09:58 7,7 C 13,3 C 12,8 C 71 % 1013,0 hPa 0,0 l/m 0 min 0 min 159 W/m 12,9 km/h (3 Bft) 95,74 %
10.04.2019 10:00 7,8 C 13,3 C 12,8 C 71 % 1012,9 hPa 0,0 l/m 0 min 0 min 197 W/m 16,1 km/h (3 Bft) 95,74 %
10.04.2019 10:02 7,9 C 13,3 C 12,2 C 71 % 1013,0 hPa 0,0 l/m 2 min 0 min 244 W/m 19,3 km/h (3 Bft) 95,74 %
10.04.2019 10:04 8,0 C 13,9 C 12,8 C 70 % 1013,0 hPa 0,0 l/m 2 min 0 min 292 W/m 19,3 km/h (3 Bft) 95,74 %
10.04.2019 10:06 8,1 C 13,9 C 12,8 C 70 % 1013,0 hPa 0,0 l/m 2 min 0 min 342 W/m 12,9 km/h (3 Bft) 93,10 %
10.04.2019 10:08 8,2 C 13,9 C 12,8 C 70 % 1013,0 hPa 0,0 l/m 2 min 0 min 388 W/m 16,1 km/h (3 Bft) 97,14 %
10.04.2019 10:10 8,3 C 14,4 C 13,3 C 70 % 1013,0 hPa 0,0 l/m 2 min 0 min 424 W/m 12,9 km/h (3 Bft) 93,62 %
10.04.2019 10:12 8,4 C 15,0 C 13,9 C 70 % 1013,0 hPa 0,0 l/m 2 min 0 min 457 W/m 9,7 km/h (2 Bft) 95,74 %
10.04.2019 10:14 8,6 C 14,4 C 13,9 C 69 % 1013,0 hPa 0,0 l/m 2 min 0 min 479 W/m 12,9 km/h (3 Bft) 95,74 %
10.04.2019 10:16 8,7 C 14,4 C 13,9 C 69 % 1013,0 hPa 0,0 l/m 2 min 0 min 494 W/m 16,1 km/h (3 Bft) 95,74 %
10.04.2019 10:18 8,7 C 14,4 C 14,4 C 69 % 1013,0 hPa 0,0 l/m 2 min 0 min 502 W/m 12,9 km/h (3 Bft) 95,74 %
10.04.2019 10:20 8,8 C 15,0 C 13,9 C 68 % 1013,0 hPa 0,0 l/m 2 min 0 min 505 W/m 12,9 km/h (3 Bft) 95,65 %
10.04.2019 10:22 8,9 C 15,0 C 14,4 C 68 % 1012,9 hPa 0,0 l/m 2 min 0 min 513 W/m 12,9 km/h (3 Bft) 95,74 %
10.04.2019 10:24 9,0 C 15,0 C 14,4 C 67 % 1012,9 hPa 0,0 l/m 2 min 0 min 520 W/m 12,9 km/h (3 Bft) 95,74 %
10.04.2019 10:26 9,1 C 14,4 C 14,4 C 67 % 1012,9 hPa 0,0 l/m 2 min 0 min 525 W/m 16,1 km/h (3 Bft) 97,87 %
10.04.2019 10:28 9,1 C 15,0 C 13,9 C 67 % 1013,0 hPa 0,0 l/m 2 min 0 min 529 W/m 12,9 km/h (3 Bft) 95,74 %
10.04.2019 10:30 9,2 C 15,0 C 13,9 C 67 % 1013,0 hPa 0,0 l/m 2 min 0 min 536 W/m 16,1 km/h (3 Bft) 95,65 %
10.04.2019 10:32 9,2 C 15,0 C 13,9 C 66 % 1013,0 hPa 0,0 l/m 2 min 0 min 541 W/m 16,1 km/h (3 Bft) 95,74 %
10.04.2019 10:34 9,2 C 15,0 C 14,4 C 67 % 1013,1 hPa 0,0 l/m 2 min 0 min 547 W/m 16,1 km/h (3 Bft) 95,74 %
10.04.2019 10:36 9,3 C 15,0 C 14,4 C 66 % 1013,1 hPa 0,0 l/m 2 min 0 min 554 W/m 12,9 km/h (3 Bft) 94,92 %
10.04.2019 10:38 9,3 C 15,0 C 13,9 C 66 % 1013,0 hPa 0,0 l/m 2 min 0 min 562 W/m 19,3 km/h (3 Bft) 97,14 %
10.04.2019 10:40 9,4 C 15,6 C 14,4 C 67 % 1013,0 hPa 0,0 l/m 2 min 0 min 568 W/m 16,1 km/h (3 Bft) 95,74 %
10.04.2019 10:42 9,5 C 15,6 C 14,4 C 66 % 1013,1 hPa 0,0 l/m 2 min 0 min 572 W/m 22,5 km/h (4 Bft) 93,48 %
10.04.2019 10:44 9,6 C 16,1 C 15,0 C 66 % 1013,0 hPa 0,0 l/m 2 min 0 min 574 W/m 19,3 km/h (3 Bft) 93,62 %
10.04.2019 10:46 9,6 C 16,1 C 15,6 C 66 % 1013,1 hPa 0,0 l/m 2 min 0 min 579 W/m 16,1 km/h (3 Bft) 91,49 %
10.04.2019 10:48 9,7 C 16,1 C 15,6 C 66 % 1013,1 hPa 0,0 l/m 2 min 0 min 587 W/m 12,9 km/h (3 Bft) 95,74 %
10.04.2019 10:50 9,8 C 16,1 C 15,6 C 66 % 1013,1 hPa 0,0 l/m 2 min 0 min 594 W/m 16,1 km/h (3 Bft) 95,74 %
10.04.2019 10:52 9,9 C 16,7 C 15,6 C 66 % 1013,1 hPa 0,0 l/m 2 min 0 min 599 W/m 19,3 km/h (3 Bft) 97,87 %
10.04.2019 10:54 10,0 C 16,1 C 15,6 C 65 % 1013,2 hPa 0,0 l/m 2 min 0 min 602 W/m 19,3 km/h (3 Bft) 95,65 %
10.04.2019 10:56 10,1 C 16,7 C 16,1 C 65 % 1013,2 hPa 0,0 l/m 2 min 0 min 607 W/m 12,9 km/h (3 Bft) 93,62 %
10.04.2019 10:58 10,2 C 16,7 C 16,1 C 65 % 1013,2 hPa 0,0 l/m 2 min 0 min 613 W/m 12,9 km/h (3 Bft) 95,74 %
10.04.2019 11:00 10,3 C 17,2 C 16,7 C 66 % 1013,3 hPa 0,0 l/m 2 min 0 min 619 W/m 16,1 km/h (3 Bft) 95,74 %
10.04.2019 11:02 10,4 C 16,7 C 16,1 C 65 % 1013,2 hPa 0,0 l/m 2 min 0 min 623 W/m 19,3 km/h (3 Bft) 93,62 %
10.04.2019 11:04 10,4 C 16,7 C 15,6 C 64 % 1013,2 hPa 0,0 l/m 2 min 0 min 626 W/m 25,7 km/h (4 Bft) 95,74 %
10.04.2019 11:06 10,5 C 17,2 C 16,1 C 64 % 1013,2 hPa 0,0 l/m 2 min 0 min 633 W/m 12,9 km/h (3 Bft) 94,83 %
10.04.2019 11:08 10,6 C 17,8 C 16,1 C 64 % 1013,2 hPa 0,0 l/m 2 min 0 min 638 W/m 12,9 km/h (3 Bft) 97,14 %
10.04.2019 11:10 10,6 C 17,2 C 16,7 C 64 % 1013,2 hPa 0,0 l/m 2 min 0 min 644 W/m 19,3 km/h (3 Bft) 97,87 %
10.04.2019 11:12 10,7 C 17,2 C 16,1 C 64 % 1013,2 hPa 0,0 l/m 2 min 0 min 647 W/m 16,1 km/h (3 Bft) 95,74 %
10.04.2019 11:14 10,7 C 17,8 C 16,1 C 64 % 1013,2 hPa 0,0 l/m 2 min 0 min 650 W/m 16,1 km/h (3 Bft) 97,87 %
10.04.2019 11:16 10,8 C 17,8 C 16,7 C 64 % 1013,2 hPa 0,0 l/m 2 min 0 min 654 W/m 12,9 km/h (3 Bft) 95,74 %
10.04.2019 11:18 10,8 C 17,8 C 16,7 C 63 % 1013,2 hPa 0,0 l/m 2 min 0 min 658 W/m 12,9 km/h (3 Bft) 97,83 %
10.04.2019 11:20 10,9 C 17,8 C 16,7 C 64 % 1013,2 hPa 0,0 l/m 2 min 0 min 661 W/m 16,1 km/h (3 Bft) 97,87 %
10.04.2019 11:22 11,1 C 18,3 C 16,7 C 63 % 1013,3 hPa 0,0 l/m 2 min 0 min 663 W/m 16,1 km/h (3 Bft) 97,87 %
10.04.2019 11:24 11,1 C 17,8 C 16,7 C 63 % 1013,3 hPa 0,0 l/m 2 min 0 min 663 W/m 19,3 km/h (3 Bft) 97,87 %
10.04.2019 11:26 11,2 C 17,8 C 16,7 C 63 % 1013,3 hPa 0,0 l/m 2 min 0 min 670 W/m 19,3 km/h (3 Bft) 97,87 %
10.04.2019 11:28 11,2 C 17,8 C 14,4 C 63 % 1013,3 hPa 0,0 l/m 2 min 0 min 676 W/m 19,3 km/h (3 Bft) 100,00 %
10.04.2019 11:30 11,2 C 17,2 C 13,3 C 62 % 1013,4 hPa 0,0 l/m 2 min 0 min 681 W/m 19,3 km/h (3 Bft) 97,87 %
10.04.2019 11:32 11,3 C 17,8 C 13,3 C 62 % 1013,3 hPa 0,0 l/m 2 min 0 min 684 W/m 19,3 km/h (3 Bft) 97,87 %
10.04.2019 11:34 11,3 C 18,3 C 12,8 C 62 % 1013,4 hPa 0,0 l/m 2 min 0 min 687 W/m 9,7 km/h (2 Bft) 97,87 %
10.04.2019 11:36 11,5 C 18,9 C 12,8 C 63 % 1013,4 hPa 0,0 l/m 2 min 0 min 692 W/m 16,1 km/h (3 Bft) 96,61 %
10.04.2019 11:38 11,6 C 18,9 C 12,2 C 62 % 1013,4 hPa 0,0 l/m 2 min 0 min 693 W/m 16,1 km/h (3 Bft) 100,00 %
10.04.2019 11:40 11,6 C 17,8 C 11,7 C 62 % 1013,3 hPa 0,0 l/m 2 min 0 min 698 W/m 19,3 km/h (3 Bft) 97,83 %
10.04.2019 11:42 11,7 C 17,8 C 11,7 C 61 % 1013,4 hPa 0,0 l/m 2 min 0 min 703 W/m 16,1 km/h (3 Bft) 100,00 %
10.04.2019 11:44 11,7 C 18,3 C 11,7 C 63 % 1013,3 hPa 0,0 l/m 2 min 0 min 710 W/m 22,5 km/h (4 Bft) 93,62 %
10.04.2019 11:46 11,8 C 18,9 C 11,7 C 62 % 1013,3 hPa 0,0 l/m 2 min 0 min 712 W/m 22,5 km/h (4 Bft) 95,74 %
10.04.2019 11:48 11,9 C 18,9 C 11,7 C 61 % 1013,2 hPa 0,0 l/m 2 min 0 min 715 W/m 12,9 km/h (3 Bft) 100,00 %
10.04.2019 11:50 12,0 C 19,4 C 11,7 C 61 % 1013,3 hPa 0,0 l/m 2 min 0 min 721 W/m 12,9 km/h (3 Bft) 100,00 %
10.04.2019 11:52 12,1 C 20,0 C 12,2 C 62 % 1013,3 hPa 0,0 l/m 2 min 0 min 724 W/m 22,5 km/h (4 Bft) 97,87 %
10.04.2019 11:54 12,2 C 18,9 C 12,2 C 60 % 1013,3 hPa 0,0 l/m 2 min 0 min 731 W/m 19,3 km/h (3 Bft) 97,83 %
10.04.2019 11:56 12,2 C 18,3 C 12,2 C 59 % 1013,3 hPa 0,0 l/m 2 min 0 min 731 W/m 16,1 km/h (3 Bft) 97,87 %
10.04.2019 11:58 12,3 C 18,9 C 12,2 C 60 % 1013,2 hPa 0,0 l/m 2 min 0 min 736 W/m 16,1 km/h (3 Bft) 100,00 %
10.04.2019 12:00 12,3 C 19,4 C 12,2 C 60 % 1013,3 hPa 0,0 l/m 2 min 0 min 739 W/m 22,5 km/h (4 Bft) 100,00 %
10.04.2019 12:02 12,4 C 18,9 C 12,2 C 59 % 1013,3 hPa 0,0 l/m 2 min 0 min 742 W/m 22,5 km/h (4 Bft) 100,00 %
10.04.2019 12:04 12,4 C 18,9 C 12,8 C 58 % 1013,1 hPa 0,0 l/m 2 min 0 min 744 W/m 22,5 km/h (4 Bft) 100,00 %
10.04.2019 12:08 12,6 C 20,0 C 12,8 C 60 % 1013,2 hPa 0,0 l/m 4 min 0 min 750 W/m 16,1 km/h (3 Bft) 100,00 %
10.04.2019 12:10 12,6 C 19,4 C 12,8 C 58 % 1013,2 hPa 0,0 l/m 2 min 0 min 756 W/m 16,1 km/h (3 Bft) 100,00 %
10.04.2019 12:12 12,7 C 19,4 C 12,8 C 58 % 1013,2 hPa 0,0 l/m 2 min 0 min 757 W/m 32,2 km/h (5 Bft) 100,00 %
10.04.2019 12:14 12,6 C 18,3 C 12,2 C 57 % 1013,2 hPa 0,0 l/m 2 min 0 min 756 W/m 19,3 km/h (3 Bft) 95,74 %
10.04.2019 12:16 12,6 C 17,8 C 12,2 C 57 % 1013,2 hPa 0,0 l/m 2 min 0 min 757 W/m 16,1 km/h (3 Bft) 100,00 %
10.04.2019 12:18 12,6 C 18,9 C 12,2 C 57 % 1013,2 hPa 0,0 l/m 2 min 0 min 762 W/m 16,1 km/h (3 Bft) 100,00 %
10.04.2019 12:20 12,6 C 18,3 C 12,2 C 57 % 1013,1 hPa 0,0 l/m 2 min 0 min 770 W/m 19,3 km/h (3 Bft) 100,00 %
10.04.2019 12:22 12,6 C 19,4 C 13,3 C 59 % 1013,2 hPa 0,0 l/m 2 min 0 min 769 W/m 19,3 km/h (3 Bft) 100,00 %
10.04.2019 12:24 12,7 C 20,0 C 13,3 C 58 % 1013,2 hPa 0,0 l/m 2 min 0 min 770 W/m 16,1 km/h (3 Bft) 100,00 %
10.04.2019 12:26 12,7 C 20,0 C 13,3 C 59 % 1013,2 hPa 0,0 l/m 2 min 0 min 768 W/m 19,3 km/h (3 Bft) 100,00 %
10.04.2019 12:28 12,8 C 18,9 C 13,3 C 56 % 1013,2 hPa 0,0 l/m 2 min 0 min 783 W/m 19,3 km/h (3 Bft) 100,00 %
10.04.2019 12:30 12,8 C 18,9 C 12,8 C 57 % 1013,2 hPa 0,0 l/m 2 min 0 min 782 W/m 22,5 km/h (4 Bft) 100,00 %
10.04.2019 12:32 12,8 C 19,4 C 12,8 C 56 % 1013,2 hPa 0,0 l/m 2 min 0 min 784 W/m 16,1 km/h (3 Bft) 100,00 %
10.04.2019 12:34 12,8 C 18,9 C 12,8 C 56 % 1013,2 hPa 0,0 l/m 2 min 0 min 786 W/m 16,1 km/h (3 Bft) 97,87 %
10.04.2019 12:36 12,8 C 18,9 C 12,8 C 56 % 1013,2 hPa 0,0 l/m 2 min 0 min 789 W/m 22,5 km/h (4 Bft) 100,00 %
10.04.2019 12:38 12,8 C 17,8 C 13,3 C 56 % 1013,2 hPa 0,0 l/m 2 min 0 min 792 W/m 19,3 km/h (3 Bft) 97,22 %
10.04.2019 12:40 12,8 C 17,8 C 13,3 C 55 % 1013,2 hPa 0,0 l/m 2 min 0 min 797 W/m 22,5 km/h (4 Bft) 97,83 %
10.04.2019 12:42 12,8 C 18,9 C 13,3 C 57 % 1013,2 hPa 0,0 l/m 2 min 0 min 793 W/m 12,9 km/h (3 Bft) 97,87 %
10.04.2019 12:44 12,9 C 20,0 C 13,9 C 57 % 1013,2 hPa 0,0 l/m 2 min 0 min 790 W/m 22,5 km/h (4 Bft) 97,87 %
10.04.2019 12:46 12,9 C 19,4 C 13,3 C 56 % 1013,2 hPa 0,0 l/m 2 min 0 min 798 W/m 22,5 km/h (4 Bft) 97,87 %
10.04.2019 12:48 13,0 C 20,6 C 13,3 C 57 % 1013,2 hPa 0,0 l/m 2 min 0 min 801 W/m 12,9 km/h (3 Bft) 95,74 %
10.04.2019 12:50 13,1 C 18,9 C 13,3 C 56 % 1013,2 hPa 0,0 l/m 2 min 0 min 803 W/m 16,1 km/h (3 Bft) 95,74 %
10.04.2019 12:52 13,1 C 18,9 C 13,3 C 56 % 1013,2 hPa 0,0 l/m 2 min 0 min 804 W/m 29,0 km/h (5 Bft) 97,83 %
10.04.2019 12:54 13,1 C 19,4 C 13,9 C 55 % 1013,2 hPa 0,0 l/m 2 min 0 min 803 W/m 16,1 km/h (3 Bft) 97,87 %
10.04.2019 12:56 13,2 C 20,0 C 13,9 C 56 % 1013,2 hPa 0,0 l/m 2 min 0 min 808 W/m 19,3 km/h (3 Bft) 97,87 %
10.04.2019 12:58 13,2 C 18,9 C 13,9 C 55 % 1013,2 hPa 0,0 l/m 2 min 0 min 805 W/m 16,1 km/h (3 Bft) 97,87 %
10.04.2019 13:00 13,2 C 19,4 C 13,9 C 55 % 1013,2 hPa 0,0 l/m 2 min 0 min 807 W/m 12,9 km/h (3 Bft) 93,62 %
10.04.2019 13:02 13,3 C 20,0 C 13,9 C 55 % 1013,2 hPa 0,0 l/m 2 min 0 min 805 W/m 19,3 km/h (3 Bft) 95,74 %
10.04.2019 13:04 13,4 C 20,6 C 13,9 C 56 % 1013,2 hPa 0,0 l/m 2 min 0 min 808 W/m 12,9 km/h (3 Bft) 93,48 %
10.04.2019 13:06 13,4 C 20,0 C 13,9 C 54 % 1013,2 hPa 0,0 l/m 2 min 0 min 806 W/m 16,1 km/h (3 Bft) 96,61 %
10.04.2019 13:08 13,4 C 20,6 C 13,9 C 54 % 1013,0 hPa 0,0 l/m 2 min 0 min 808 W/m 16,1 km/h (3 Bft) 91,43 %
10.04.2019 13:10 13,5 C 20,0 C 13,9 C 55 % 1013,3 hPa 0,0 l/m 2 min 0 min 814 W/m 19,3 km/h (3 Bft) 95,74 %
10.04.2019 13:12 13,6 C 20,0 C 13,9 C 54 % 1013,2 hPa 0,0 l/m 2 min 0 min 812 W/m 16,1 km/h (3 Bft) 95,74 %
10.04.2019 13:14 13,6 C 19,4 C 13,9 C 55 % 1013,2 hPa 0,0 l/m 2 min 0 min 812 W/m 16,1 km/h (3 Bft) 95,65 %
10.04.2019 13:16 13,6 C 20,0 C 14,4 C 55 % 1013,1 hPa 0,0 l/m 2 min 0 min 815 W/m 29,0 km/h (5 Bft) 95,74 %
10.04.2019 13:18 13,7 C 20,6 C 15,0 C 55 % 1013,1 hPa 0,0 l/m 2 min 0 min 811 W/m 16,1 km/h (3 Bft) 95,74 %
10.04.2019 13:20 13,8 C 20,6 C 15,0 C 55 % 1013,2 hPa 0,0 l/m 2 min 0 min 815 W/m 29,0 km/h (5 Bft) 95,74 %
10.04.2019 13:22 13,8 C 20,0 C 15,0 C 55 % 1013,1 hPa 0,0 l/m 2 min 0 min 820 W/m 19,3 km/h (3 Bft) 91,49 %
10.04.2019 13:24 13,9 C 20,0 C 15,0 C 54 % 1013,2 hPa 0,0 l/m 2 min 0 min 826 W/m 16,1 km/h (3 Bft) 93,62 %
10.04.2019 13:26 13,9 C 20,0 C 16,1 C 55 % 1013,2 hPa 0,0 l/m 2 min 0 min 821 W/m 12,9 km/h (3 Bft) 95,65 %
10.04.2019 13:28 13,9 C 21,1 C 19,4 C 55 % 1013,2 hPa 0,0 l/m 2 min 0 min 821 W/m 16,1 km/h (3 Bft) 95,74 %
10.04.2019 13:30 14,2 C 22,2 C 21,7 C 57 % 1013,3 hPa 0,0 l/m 2 min 0 min 828 W/m 9,7 km/h (2 Bft) 93,62 %
10.04.2019 13:32 14,2 C 21,7 C 21,1 C 55 % 1013,3 hPa 0,0 l/m 2 min 0 min 818 W/m 29,0 km/h (5 Bft) 91,49 %
10.04.2019 13:34 14,2 C 20,6 C 21,1 C 54 % 1013,3 hPa 0,0 l/m 2 min 0 min 815 W/m 19,3 km/h (3 Bft) 97,87 %
10.04.2019 13:36 14,2 C 20,6 C 21,1 C 55 % 1013,3 hPa 0,0 l/m 2 min 0 min 816 W/m 22,5 km/h (4 Bft) 96,55 %
10.04.2019 13:38 14,2 C 21,7 C 21,1 C 56 % 1013,3 hPa 0,0 l/m 2 min 0 min 809 W/m 16,1 km/h (3 Bft) 94,29 %
10.04.2019 13:40 14,3 C 21,7 C 21,7 C 55 % 1013,3 hPa 0,0 l/m 2 min 0 min 806 W/m 16,1 km/h (3 Bft) 97,87 %
10.04.2019 13:42 14,4 C 21,1 C 22,2 C 54 % 1013,3 hPa 0,0 l/m 2 min 0 min 813 W/m 25,7 km/h (4 Bft) 97,87 %
10.04.2019 13:44 14,4 C 21,1 C 22,2 C 54 % 1013,2 hPa 0,0 l/m 2 min 0 min 813 W/m 19,3 km/h (3 Bft) 97,87 %
10.04.2019 13:46 14,5 C 21,7 C 22,2 C 54 % 1013,3 hPa 0,0 l/m 2 min 0 min 816 W/m 19,3 km/h (3 Bft) 100,00 %
10.04.2019 13:48 14,5 C 20,6 C 21,7 C 53 % 1013,4 hPa 0,0 l/m 2 min 0 min 812 W/m 16,1 km/h (3 Bft) 95,74 %
10.04.2019 13:50 14,5 C 21,1 C 21,7 C 53 % 1013,4 hPa 0,0 l/m 2 min 0 min 814 W/m 16,1 km/h (3 Bft) 100,00 %
10.04.2019 13:52 14,5 C 20,6 C 22,2 C 52 % 1013,5 hPa 0,0 l/m 2 min 0 min 816 W/m 16,1 km/h (3 Bft) 100,00 %
10.04.2019 13:54 14,4 C 20,0 C 21,7 C 51 % 1013,5 hPa 0,0 l/m 2 min 0 min 815 W/m 12,9 km/h (3 Bft) 100,00 %
10.04.2019 13:56 14,4 C 20,6 C 22,2 C 52 % 1013,3 hPa 0,0 l/m 2 min 0 min 810 W/m 16,1 km/h (3 Bft) 97,87 %
10.04.2019 13:58 14,4 C 20,6 C 21,7 C 52 % 1013,2 hPa 0,0 l/m 2 min 0 min 811 W/m 19,3 km/h (3 Bft) 97,87 %
10.04.2019 14:00 14,5 C 21,1 C 22,2 C 53 % 1013,3 hPa 0,0 l/m 2 min 0 min 800 W/m 29,0 km/h (5 Bft) 100,00 %
10.04.2019 14:02 14,6 C 21,1 C 22,2 C 53 % 1013,4 hPa 0,0 l/m 2 min 0 min 794 W/m 12,9 km/h (3 Bft) 100,00 %
10.04.2019 14:04 14,5 C 20,0 C 21,7 C 52 % 1013,5 hPa 0,0 l/m 2 min 0 min 807 W/m 22,5 km/h (4 Bft) 100,00 %
10.04.2019 14:06 14,5 C 20,6 C 22,2 C 53 % 1013,4 hPa 0,0 l/m 2 min 0 min 815 W/m 25,7 km/h (4 Bft) 100,00 %
10.04.2019 14:08 14,5 C 20,0 C 22,2 C 52 % 1013,5 hPa 0,0 l/m 2 min 0 min 817 W/m 19,3 km/h (3 Bft) 100,00 %
10.04.2019 14:10 14,5 C 19,4 C 22,2 C 53 % 1013,5 hPa 0,0 l/m 2 min 0 min 801 W/m 25,7 km/h (4 Bft) 100,00 %
10.04.2019 14:12 14,4 C 19,4 C 21,7 C 52 % 1013,3 hPa 0,0 l/m 2 min 0 min 726 W/m 16,1 km/h (3 Bft) 100,00 %
10.04.2019 14:14 14,4 C 18,3 C 20,0 C 52 % 1013,5 hPa 0,0 l/m 2 min 0 min 564 W/m 22,5 km/h (4 Bft) 100,00 %
10.04.2019 14:16 14,3 C 18,9 C 20,6 C 51 % 1013,4 hPa 0,0 l/m 2 min 0 min 638 W/m 29,0 km/h (5 Bft) 100,00 %
10.04.2019 14:18 14,3 C 20,0 C 21,1 C 53 % 1013,4 hPa 0,0 l/m 2 min 0 min 807 W/m 25,7 km/h (4 Bft) 100,00 %
10.04.2019 14:20 14,3 C 20,6 C 21,1 C 52 % 1013,4 hPa 0,0 l/m 2 min 0 min 795 W/m 16,1 km/h (3 Bft) 100,00 %
10.04.2019 14:22 14,3 C 19,4 C 21,7 C 52 % 1013,4 hPa 0,0 l/m 2 min 0 min 805 W/m 22,5 km/h (4 Bft) 100,00 %
10.04.2019 14:24 14,3 C 19,4 C 21,1 C 52 % 1013,4 hPa 0,0 l/m 2 min 0 min 782 W/m 19,3 km/h (3 Bft) 100,00 %
10.04.2019 14:26 14,3 C 18,9 C 21,7 C 52 % 1013,4 hPa 0,0 l/m 2 min 0 min 748 W/m 19,3 km/h (3 Bft) 100,00 %
10.04.2019 14:28 14,3 C 20,0 C 22,2 C 54 % 1013,4 hPa 0,0 l/m 2 min 0 min 779 W/m 9,7 km/h (2 Bft) 100,00 %
10.04.2019 14:30 14,3 C 20,6 C 22,8 C 54 % 1013,4 hPa 0,0 l/m 2 min 0 min 771 W/m 16,1 km/h (3 Bft) 100,00 %
10.04.2019 14:32 14,4 C 20,6 C 22,2 C 53 % 1013,4 hPa 0,0 l/m 2 min 0 min 770 W/m 19,3 km/h (3 Bft) 95,74 %
10.04.2019 14:34 14,4 C 19,4 C 22,2 C 52 % 1013,4 hPa 0,0 l/m 2 min 0 min 782 W/m 25,7 km/h (4 Bft) 100,00 %
10.04.2019 14:36 14,4 C 19,4 C 21,7 C 51 % 1013,3 hPa 0,0 l/m 2 min 0 min 779 W/m 19,3 km/h (3 Bft) 98,31 %
10.04.2019 14:38 14,4 C 20,0 C 21,7 C 52 % 1013,4 hPa 0,0 l/m 2 min 0 min 778 W/m 12,9 km/h (3 Bft) 100,00 %
10.04.2019 14:40 14,5 C 21,1 C 23,3 C 54 % 1013,4 hPa 0,0 l/m 2 min 0 min 782 W/m 16,1 km/h (3 Bft) 100,00 %
10.04.2019 14:42 14,5 C 20,6 C 22,8 C 51 % 1013,3 hPa 0,0 l/m 2 min 0 min 776 W/m 25,7 km/h (4 Bft) 100,00 %
10.04.2019 14:44 14,6 C 20,6 C 22,2 C 53 % 1013,5 hPa 0,0 l/m 2 min 0 min 773 W/m 22,5 km/h (4 Bft) 100,00 %
10.04.2019 14:46 14,7 C 21,1 C 22,2 C 54 % 1013,4 hPa 0,0 l/m 2 min 0 min 769 W/m 12,9 km/h (3 Bft) 100,00 %
10.04.2019 14:48 14,7 C 20,6 C 21,1 C 52 % 1013,4 hPa 0,0 l/m 2 min 0 min 762 W/m 16,1 km/h (3 Bft) 97,87 %
10.04.2019 14:50 14,7 C 19,4 C 19,4 C 51 % 1013,3 hPa 0,0 l/m 2 min 0 min 762 W/m 22,5 km/h (4 Bft) 97,87 %
10.04.2019 14:52 14,7 C 19,4 C 17,2 C 51 % 1013,3 hPa 0,0 l/m 2 min 0 min 762 W/m 19,3 km/h (3 Bft) 100,00 %
10.04.2019 14:54 14,7 C 19,4 C 16,7 C 53 % 1013,4 hPa 0,0 l/m 2 min 0 min 748 W/m 22,5 km/h (4 Bft) 97,87 %
10.04.2019 14:56 14,7 C 20,0 C 15,6 C 52 % 1013,4 hPa 0,0 l/m 2 min 0 min 752 W/m 22,5 km/h (4 Bft) 100,00 %
10.04.2019 14:58 14,7 C 20,0 C 15,6 C 52 % 1013,5 hPa 0,0 l/m 2 min 0 min 750 W/m 22,5 km/h (4 Bft) 100,00 %
10.04.2019 15:00 14,7 C 20,6 C 15,6 C 52 % 1013,4 hPa 0,0 l/m 2 min 0 min 751 W/m 16,1 km/h (3 Bft) 100,00 %
10.04.2019 15:02 14,8 C 20,6 C 15,6 C 53 % 1013,4 hPa 0,0 l/m 2 min 0 min 753 W/m 19,3 km/h (3 Bft) 100,00 %
10.04.2019 15:04 14,8 C 20,6 C 15,6 C 52 % 1013,3 hPa 0,0 l/m 2 min 0 min 741 W/m 16,1 km/h (3 Bft) 95,74 %
10.04.2019 15:06 14,9 C 21,1 C 15,6 C 53 % 1013,4 hPa 0,0 l/m 2 min 0 min 731 W/m 16,1 km/h (3 Bft) 98,28 %
10.04.2019 15:08 15,0 C 20,6 C 15,6 C 51 % 1013,4 hPa 0,0 l/m 2 min 0 min 744 W/m 22,5 km/h (4 Bft) 100,00 %
10.04.2019 15:10 15,0 C 20,6 C 15,6 C 52 % 1013,4 hPa 0,0 l/m 2 min 0 min 739 W/m 16,1 km/h (3 Bft) 97,87 %
10.04.2019 15:12 15,0 C 20,0 C 15,6 C 52 % 1013,4 hPa 0,0 l/m 2 min 0 min 729 W/m 19,3 km/h (3 Bft) 100,00 %
10.04.2019 15:14 15,1 C 20,6 C 15,6 C 53 % 1013,3 hPa 0,0 l/m 2 min 0 min 730 W/m 9,7 km/h (2 Bft) 100,00 %
10.04.2019 15:16 15,1 C 20,6 C 15,6 C 52 % 1013,4 hPa 0,0 l/m 2 min 0 min 725 W/m 16,1 km/h (3 Bft) 100,00 %
10.04.2019 15:18 15,1 C 20,0 C 15,0 C 53 % 1013,4 hPa 0,0 l/m 2 min 0 min 729 W/m 19,3 km/h (3 Bft) 97,87 %
10.04.2019 15:20 15,2 C 20,6 C 15,0 C 51 % 1013,3 hPa 0,0 l/m 2 min 0 min 722 W/m 19,3 km/h (3 Bft) 97,83 %
10.04.2019 15:22 15,2 C 20,0 C 15,0 C 52 % 1013,3 hPa 0,0 l/m 2 min 0 min 719 W/m 25,7 km/h (4 Bft) 97,87 %
10.04.2019 15:24 15,2 C 20,6 C 15,6 C 53 % 1013,3 hPa 0,0 l/m 2 min 0 min 709 W/m 12,9 km/h (3 Bft) 97,87 %
10.04.2019 15:26 15,2 C 20,6 C 15,0 C 51 % 1013,4 hPa 0,0 l/m 2 min 0 min 713 W/m 16,1 km/h (3 Bft) 95,74 %
10.04.2019 15:28 15,2 C 20,0 C 15,6 C 52 % 1013,4 hPa 0,0 l/m 2 min 0 min 706 W/m 19,3 km/h (3 Bft) 95,74 %
10.04.2019 15:30 15,2 C 20,0 C 15,0 C 52 % 1013,4 hPa 0,0 l/m 2 min 0 min 701 W/m 16,1 km/h (3 Bft) 100,00 %
10.04.2019 15:32 15,3 C 20,0 C 15,6 C 51 % 1013,3 hPa 0,0 l/m 2 min 0 min 707 W/m 22,5 km/h (4 Bft) 100,00 %
10.04.2019 15:34 15,3 C 20,0 C 15,6 C 53 % 1013,4 hPa 0,0 l/m 2 min 0 min 698 W/m 19,3 km/h (3 Bft) 100,00 %
10.04.2019 15:36 15,3 C 20,0 C 15,6 C 51 % 1013,4 hPa 0,0 l/m 2 min 0 min 693 W/m 16,1 km/h (3 Bft) 98,31 %
10.04.2019 15:38 15,3 C 19,4 C 15,0 C 50 % 1013,3 hPa 0,0 l/m 2 min 0 min 687 W/m 19,3 km/h (3 Bft) 94,29 %
10.04.2019 15:40 15,3 C 20,0 C 15,0 C 51 % 1013,4 hPa 0,0 l/m 2 min 0 min 687 W/m 19,3 km/h (3 Bft) 95,74 %
10.04.2019 15:42 15,3 C 18,9 C 15,0 C 49 % 1013,3 hPa 0,0 l/m 2 min 0 min 693 W/m 16,1 km/h (3 Bft) 91,49 %
10.04.2019 15:44 15,2 C 18,9 C 15,0 C 49 % 1013,4 hPa 0,0 l/m 2 min 0 min 692 W/m 29,0 km/h (5 Bft) 93,48 %
10.04.2019 15:46 15,2 C 19,4 C 15,0 C 50 % 1013,3 hPa 0,0 l/m 2 min 0 min 690 W/m 25,7 km/h (4 Bft) 93,62 %
10.04.2019 15:48 15,2 C 19,4 C 15,0 C 50 % 1013,4 hPa 0,0 l/m 2 min 0 min 682 W/m 16,1 km/h (3 Bft) 93,62 %
10.04.2019 15:50 15,2 C 20,0 C 15,0 C 51 % 1013,4 hPa 0,0 l/m 2 min 0 min 679 W/m 19,3 km/h (3 Bft) 95,74 %
10.04.2019 15:52 15,2 C 20,0 C 15,0 C 51 % 1013,4 hPa 0,0 l/m 2 min 0 min 675 W/m 19,3 km/h (3 Bft) 93,62 %
10.04.2019 15:54 15,2 C 19,4 C 15,0 C 50 % 1013,4 hPa 0,0 l/m 2 min 0 min 674 W/m 19,3 km/h (3 Bft) 91,49 %
10.04.2019 15:56 15,2 C 19,4 C 15,0 C 50 % 1013,3 hPa 0,0 l/m 2 min 0 min 667 W/m 12,9 km/h (3 Bft) 91,30 %
10.04.2019 15:58 15,2 C 20,0 C 15,0 C 52 % 1013,3 hPa 0,0 l/m 2 min 0 min 659 W/m 16,1 km/h (3 Bft) 91,49 %
10.04.2019 16:00 15,2 C 18,9 C 15,0 C 50 % 1013,3 hPa 0,0 l/m 2 min 0 min 658 W/m 22,5 km/h (4 Bft) 91,49 %
10.04.2019 16:02 15,2 C 18,3 C 15,0 C 49 % 1013,3 hPa 0,0 l/m 2 min 0 min 651 W/m 19,3 km/h (3 Bft) 95,74 %
10.04.2019 16:04 15,1 C 18,9 C 15,0 C 49 % 1013,4 hPa 0,0 l/m 2 min 0 min 642 W/m 12,9 km/h (3 Bft) 93,62 %
10.04.2019 16:06 15,0 C 18,3 C 15,6 C 49 % 1013,3 hPa 0,0 l/m 2 min 0 min 640 W/m 12,9 km/h (3 Bft) 94,83 %
10.04.2019 16:08 14,9 C 18,3 C 16,1 C 49 % 1013,3 hPa 0,0 l/m 2 min 0 min 645 W/m 25,7 km/h (4 Bft) 91,43 %
10.04.2019 16:10 14,9 C 18,9 C 17,2 C 50 % 1013,3 hPa 0,0 l/m 2 min 0 min 635 W/m 19,3 km/h (3 Bft) 91,49 %
10.04.2019 16:12 14,9 C 18,9 C 18,9 C 51 % 1013,3 hPa 0,0 l/m 2 min 0 min 626 W/m 12,9 km/h (3 Bft) 91,49 %
10.04.2019 16:14 14,9 C 18,9 C 19,4 C 51 % 1013,3 hPa 0,0 l/m 2 min 0 min 629 W/m 16,1 km/h (3 Bft) 93,62 %
10.04.2019 16:16 15,0 C 18,9 C 19,4 C 51 % 1013,3 hPa 0,0 l/m 2 min 0 min 625 W/m 16,1 km/h (3 Bft) 93,62 %
10.04.2019 16:18 15,0 C 18,9 C 20,6 C 51 % 1013,3 hPa 0,0 l/m 2 min 0 min 619 W/m 22,5 km/h (4 Bft) 93,48 %
10.04.2019 16:20 15,1 C 18,3 C 20,0 C 50 % 1013,4 hPa 0,0 l/m 2 min 0 min 612 W/m 22,5 km/h (4 Bft) 93,62 %
10.04.2019 16:22 15,0 C 17,8 C 18,9 C 49 % 1013,3 hPa 0,0 l/m 2 min 0 min 608 W/m 19,3 km/h (3 Bft) 95,74 %
10.04.2019 16:24 14,9 C 17,8 C 17,8 C 49 % 1013,3 hPa 0,0 l/m 2 min 0 min 604 W/m 19,3 km/h (3 Bft) 95,74 %
10.04.2019 16:26 14,9 C 17,8 C 16,7 C 49 % 1013,4 hPa 0,0 l/m 2 min 0 min 600 W/m 19,3 km/h (3 Bft) 95,74 %
10.04.2019 16:28 14,8 C 18,3 C 16,1 C 50 % 1013,4 hPa 0,0 l/m 2 min 0 min 594 W/m 19,3 km/h (3 Bft) 95,74 %
10.04.2019 16:30 14,8 C 17,8 C 16,1 C 49 % 1013,4 hPa 0,0 l/m 2 min 0 min 586 W/m 16,1 km/h (3 Bft) 95,65 %
10.04.2019 16:32 14,8 C 17,8 C 17,2 C 48 % 1013,4 hPa 0,0 l/m 2 min 0 min 585 W/m 35,4 km/h (5 Bft) 93,62 %
10.04.2019 16:34 14,7 C 17,2 C 17,8 C 49 % 1013,5 hPa 0,0 l/m 2 min 0 min 580 W/m 22,5 km/h (4 Bft) 97,87 %
10.04.2019 16:36 14,7 C 17,8 C 18,3 C 50 % 1013,5 hPa 0,0 l/m 2 min 0 min 577 W/m 16,1 km/h (3 Bft) 98,31 %
10.04.2019 16:38 14,7 C 17,8 C 17,8 C 50 % 1013,5 hPa 0,0 l/m 2 min 0 min 573 W/m 16,1 km/h (3 Bft) 97,14 %
10.04.2019 16:40 14,6 C 17,2 C 17,2 C 48 % 1013,5 hPa 0,0 l/m 2 min 0 min 564 W/m 16,1 km/h (3 Bft) 97,87 %
10.04.2019 16:42 14,6 C 17,2 C 16,1 C 48 % 1013,4 hPa 0,0 l/m 2 min 0 min 568 W/m 22,5 km/h (4 Bft) 100,00 %
10.04.2019 16:44 14,6 C 17,8 C 15,0 C 50 % 1013,5 hPa 0,0 l/m 2 min 0 min 564 W/m 12,9 km/h (3 Bft) 97,87 %
10.04.2019 16:46 14,6 C 17,8 C 15,0 C 49 % 1013,6 hPa 0,0 l/m 2 min 0 min 556 W/m 22,5 km/h (4 Bft) 95,74 %
10.04.2019 16:48 14,6 C 17,2 C 15,0 C 48 % 1013,6 hPa 0,0 l/m 2 min 0 min 552 W/m 22,5 km/h (4 Bft) 100,00 %
10.04.2019 16:50 14,5 C 17,2 C 15,6 C 49 % 1013,6 hPa 0,0 l/m 2 min 0 min 544 W/m 29,0 km/h (5 Bft) 97,87 %
10.04.2019 16:52 14,5 C 17,2 C 16,1 C 49 % 1013,6 hPa 0,0 l/m 2 min 0 min 542 W/m 16,1 km/h (3 Bft) 97,87 %
10.04.2019 16:54 14,6 C 17,2 C 16,1 C 49 % 1013,6 hPa 0,0 l/m 2 min 0 min 539 W/m 12,9 km/h (3 Bft) 100,00 %
10.04.2019 16:56 14,6 C 17,2 C 17,2 C 50 % 1013,6 hPa 0,0 l/m 2 min 0 min 529 W/m 22,5 km/h (4 Bft) 100,00 %
10.04.2019 16:58 14,6 C 17,2 C 17,8 C 48 % 1013,6 hPa 0,0 l/m 2 min 0 min 523 W/m 25,7 km/h (4 Bft) 97,87 %
10.04.2019 17:00 14,6 C 16,7 C 17,8 C 48 % 1013,6 hPa 0,0 l/m 2 min 0 min 519 W/m 12,9 km/h (3 Bft) 100,00 %
10.04.2019 17:02 14,5 C 17,2 C 18,3 C 49 % 1013,6 hPa 0,0 l/m 2 min 0 min 516 W/m 16,1 km/h (3 Bft) 100,00 %
10.04.2019 17:04 14,5 C 16,7 C 18,3 C 48 % 1013,7 hPa 0,0 l/m 2 min 0 min 509 W/m 16,1 km/h (3 Bft) 100,00 %
10.04.2019 17:06 14,5 C 16,7 C 18,3 C 49 % 1013,6 hPa 0,0 l/m 2 min 0 min 502 W/m 25,7 km/h (4 Bft) 100,00 %
10.04.2019 17:08 14,5 C 16,7 C 17,8 C 48 % 1013,7 hPa 0,0 l/m 2 min 0 min 499 W/m 16,1 km/h (3 Bft) 100,00 %
10.04.2019 17:10 14,4 C 16,1 C 17,2 C 47 % 1013,6 hPa 0,0 l/m 2 min 0 min 496 W/m 19,3 km/h (3 Bft) 100,00 %
10.04.2019 17:12 14,4 C 16,1 C 16,1 C 48 % 1013,6 hPa 0,0 l/m 2 min 0 min 489 W/m 22,5 km/h (4 Bft) 100,00 %
10.04.2019 17:14 14,4 C 16,1 C 15,0 C 49 % 1013,8 hPa 0,0 l/m 2 min 0 min 486 W/m 32,2 km/h (5 Bft) 100,00 %
10.04.2019 17:16 14,3 C 15,6 C 14,4 C 49 % 1013,6 hPa 0,0 l/m 2 min 0 min 478 W/m 22,5 km/h (4 Bft) 100,00 %
10.04.2019 17:18 14,2 C 15,6 C 14,4 C 49 % 1013,7 hPa 0,0 l/m 2 min 0 min 473 W/m 16,1 km/h (3 Bft) 97,87 %
10.04.2019 17:20 14,2 C 15,6 C 13,9 C 50 % 1013,7 hPa 0,0 l/m 2 min 0 min 465 W/m 16,1 km/h (3 Bft) 100,00 %
10.04.2019 17:22 14,2 C 15,6 C 13,3 C 48 % 1013,7 hPa 0,0 l/m 2 min 0 min 460 W/m 16,1 km/h (3 Bft) 100,00 %
10.04.2019 17:24 14,2 C 15,6 C 13,3 C 49 % 1013,7 hPa 0,0 l/m 2 min 0 min 453 W/m 19,3 km/h (3 Bft) 100,00 %
10.04.2019 17:26 14,1 C 15,0 C 13,3 C 48 % 1013,7 hPa 0,0 l/m 2 min 0 min 444 W/m 22,5 km/h (4 Bft) 97,87 %
10.04.2019 17:28 13,9 C 15,0 C 12,8 C 48 % 1013,8 hPa 0,0 l/m 2 min 0 min 438 W/m 22,5 km/h (4 Bft) 100,00 %
10.04.2019 17:30 13,9 C 15,0 C 12,8 C 49 % 1013,7 hPa 0,0 l/m 2 min 0 min 430 W/m 22,5 km/h (4 Bft) 100,00 %
10.04.2019 17:32 13,8 C 15,0 C 12,8 C 48 % 1013,8 hPa 0,0 l/m 2 min 0 min 422 W/m 25,7 km/h (4 Bft) 97,87 %
10.04.2019 17:34 13,7 C 15,0 C 12,8 C 49 % 1013,8 hPa 0,0 l/m 2 min 0 min 415 W/m 12,9 km/h (3 Bft) 100,00 %
10.04.2019 17:36 13,7 C 15,0 C 12,8 C 49 % 1013,9 hPa 0,0 l/m 2 min 0 min 414 W/m 19,3 km/h (3 Bft) 100,00 %
10.04.2019 17:38 13,7 C 15,0 C 12,8 C 50 % 1013,9 hPa 0,0 l/m 2 min 0 min 412 W/m 12,9 km/h (3 Bft) 100,00 %
10.04.2019 17:40 13,7 C 15,6 C 12,8 C 51 % 1013,9 hPa 0,0 l/m 2 min 0 min 407 W/m 9,7 km/h (2 Bft) 100,00 %
10.04.2019 17:42 13,7 C 15,0 C 12,8 C 50 % 1013,8 hPa 0,0 l/m 2 min 0 min 403 W/m 16,1 km/h (3 Bft) 100,00 %
10.04.2019 17:44 13,7 C 15,0 C 12,8 C 49 % 1013,9 hPa 0,0 l/m 2 min 0 min 395 W/m 12,9 km/h (3 Bft) 100,00 %
10.04.2019 17:46 13,7 C 15,0 C 12,2 C 50 % 1013,9 hPa 0,0 l/m 2 min 0 min 385 W/m 12,9 km/h (3 Bft) 100,00 %
10.04.2019 17:48 13,7 C 15,0 C 12,2 C 49 % 1013,9 hPa 0,0 l/m 2 min 0 min 378 W/m 19,3 km/h (3 Bft) 100,00 %
10.04.2019 17:50 13,7 C 14,4 C 12,2 C 50 % 1013,9 hPa 0,0 l/m 2 min 0 min 372 W/m 16,1 km/h (3 Bft) 100,00 %
10.04.2019 17:52 13,7 C 14,4 C 12,2 C 49 % 1014,0 hPa 0,0 l/m 2 min 0 min 365 W/m 16,1 km/h (3 Bft) 100,00 %
10.04.2019 17:54 13,6 C 13,9 C 11,7 C 49 % 1013,9 hPa 0,0 l/m 2 min 0 min 357 W/m 25,7 km/h (4 Bft) 100,00 %
10.04.2019 17:56 13,6 C 13,9 C 11,7 C 49 % 1013,9 hPa 0,0 l/m 2 min 0 min 355 W/m 16,1 km/h (3 Bft) 100,00 %
10.04.2019 17:58 13,5 C 13,9 C 11,7 C 50 % 1014,0 hPa 0,0 l/m 2 min 0 min 350 W/m 22,5 km/h (4 Bft) 97,87 %
10.04.2019 18:00 13,4 C 13,9 C 11,7 C 50 % 1013,9 hPa 0,0 l/m 2 min 0 min 342 W/m 12,9 km/h (3 Bft) 100,00 %
10.04.2019 18:02 13,4 C 13,9 C 11,7 C 50 % 1014,0 hPa 0,0 l/m 2 min 0 min 343 W/m 16,1 km/h (3 Bft) 100,00 %
10.04.2019 18:04 13,3 C 13,9 C 11,1 C 50 % 1014,0 hPa 0,0 l/m 2 min 0 min 333 W/m 19,3 km/h (3 Bft) 100,00 %
10.04.2019 18:08 13,3 C 13,3 C 11,1 C 51 % 1014,0 hPa 0,0 l/m 4 min 0 min 319 W/m 19,3 km/h (3 Bft) 98,94 %
10.04.2019 18:10 13,2 C 13,3 C 11,1 C 51 % 1014,1 hPa 0,0 l/m 2 min 0 min 315 W/m 19,3 km/h (3 Bft) 97,87 %
10.04.2019 18:12 13,1 C 13,3 C 11,1 C 51 % 1014,0 hPa 0,0 l/m 2 min 0 min 306 W/m 16,1 km/h (3 Bft) 97,87 %
10.04.2019 18:14 13,1 C 12,8 C 11,1 C 51 % 1014,0 hPa 0,0 l/m 2 min 0 min 299 W/m 22,5 km/h (4 Bft) 95,74 %
10.04.2019 18:16 13,0 C 12,8 C 11,1 C 50 % 1014,0 hPa 0,0 l/m 2 min 0 min 294 W/m 16,1 km/h (3 Bft) 95,65 %
10.04.2019 18:18 12,9 C 12,8 C 11,1 C 50 % 1014,1 hPa 0,0 l/m 2 min 0 min 288 W/m 22,5 km/h (4 Bft) 97,87 %
10.04.2019 18:20 12,8 C 12,2 C 10,6 C 50 % 1014,2 hPa 0,0 l/m 2 min 0 min 287 W/m 16,1 km/h (3 Bft) 97,87 %
10.04.2019 18:22 12,7 C 11,7 C 10,6 C 50 % 1014,2 hPa 0,0 l/m 2 min 0 min 276 W/m 9,7 km/h (2 Bft) 97,87 %
10.04.2019 18:24 12,7 C 11,7 C 10,6 C 51 % 1014,1 hPa 0,0 l/m 2 min 0 min 181 W/m 12,9 km/h (3 Bft) 97,87 %
10.04.2019 18:26 12,6 C 11,7 C 10,6 C 52 % 1014,2 hPa 0,0 l/m 0 min 0 min 70 W/m 19,3 km/h (3 Bft) 95,65 %
10.04.2019 18:28 12,5 C 11,7 C 10,6 C 52 % 1014,1 hPa 0,0 l/m 0 min 0 min 63 W/m 16,1 km/h (3 Bft) 93,62 %
10.04.2019 18:30 12,4 C 11,7 C 11,1 C 52 % 1014,1 hPa 0,0 l/m 0 min 0 min 62 W/m 16,1 km/h (3 Bft) 95,74 %
10.04.2019 18:32 12,3 C 11,7 C 10,6 C 53 % 1014,1 hPa 0,0 l/m 0 min 0 min 61 W/m 12,9 km/h (3 Bft) 93,62 %
10.04.2019 18:34 12,2 C 11,1 C 10,6 C 52 % 1014,1 hPa 0,0 l/m 0 min 0 min 60 W/m 16,1 km/h (3 Bft) 95,74 %
10.04.2019 18:36 12,1 C 11,1 C 10,6 C 53 % 1014,2 hPa 0,0 l/m 0 min 0 min 58 W/m 12,9 km/h (3 Bft) 93,10 %
10.04.2019 18:38 12,0 C 11,1 C 10,6 C 53 % 1014,3 hPa 0,0 l/m 0 min 0 min 57 W/m 16,1 km/h (3 Bft) 91,43 %
10.04.2019 18:40 11,9 C 11,1 C 10,6 C 52 % 1014,2 hPa 0,0 l/m 0 min 0 min 56 W/m 19,3 km/h (3 Bft) 91,49 %
10.04.2019 18:42 11,8 C 10,6 C 10,6 C 52 % 1014,2 hPa 0,0 l/m 0 min 0 min 54 W/m 19,3 km/h (3 Bft) 93,62 %
10.04.2019 18:44 11,8 C 10,6 C 10,0 C 52 % 1014,3 hPa 0,0 l/m 0 min 0 min 54 W/m 12,9 km/h (3 Bft) 91,49 %
10.04.2019 18:46 11,7 C 10,6 C 10,0 C 54 % 1014,3 hPa 0,0 l/m 0 min 0 min 54 W/m 9,7 km/h (2 Bft) 93,62 %
10.04.2019 18:48 11,6 C 10,6 C 10,0 C 54 % 1014,3 hPa 0,0 l/m 0 min 0 min 53 W/m 16,1 km/h (3 Bft) 93,62 %
10.04.2019 18:50 11,6 C 10,6 C 10,0 C 54 % 1014,3 hPa 0,0 l/m 0 min 0 min 53 W/m 19,3 km/h (3 Bft) 91,30 %
10.04.2019 18:52 11,6 C 10,6 C 10,0 C 54 % 1014,3 hPa 0,0 l/m 0 min 0 min 53 W/m 12,9 km/h (3 Bft) 91,49 %
10.04.2019 18:54 11,5 C 10,6 C 10,0 C 54 % 1014,3 hPa 0,0 l/m 0 min 0 min 51 W/m 16,1 km/h (3 Bft) 93,62 %
10.04.2019 18:56 11,4 C 10,6 C 10,0 C 54 % 1014,3 hPa 0,0 l/m 0 min 0 min 51 W/m 22,5 km/h (4 Bft) 93,62 %
10.04.2019 18:58 11,4 C 10,6 C 10,0 C 55 % 1014,4 hPa 0,0 l/m 0 min 0 min 50 W/m 12,9 km/h (3 Bft) 93,62 %
10.04.2019 19:00 11,3 C 10,6 C 10,0 C 55 % 1014,4 hPa 0,0 l/m 0 min 0 min 49 W/m 12,9 km/h (3 Bft) 95,74 %
10.04.2019 19:02 11,3 C 10,6 C 10,0 C 55 % 1014,4 hPa 0,0 l/m 0 min 0 min 47 W/m 16,1 km/h (3 Bft) 91,30 %
10.04.2019 19:04 11,3 C 10,6 C 10,0 C 55 % 1014,4 hPa 0,0 l/m 0 min 0 min 47 W/m 19,3 km/h (3 Bft) 91,49 %
10.04.2019 19:06 11,2 C 10,6 C 10,0 C 55 % 1014,5 hPa 0,0 l/m 0 min 0 min 46 W/m 12,9 km/h (3 Bft) 96,61 %
10.04.2019 19:08 11,2 C 10,6 C 10,0 C 55 % 1014,4 hPa 0,0 l/m 0 min 0 min 44 W/m 9,7 km/h (2 Bft) 94,29 %
10.04.2019 19:10 11,1 C 10,0 C 9,4 C 55 % 1014,5 hPa 0,0 l/m 0 min 0 min 42 W/m 16,1 km/h (3 Bft) 93,62 %
10.04.2019 19:12 11,1 C 10,0 C 9,4 C 56 % 1014,5 hPa 0,0 l/m 0 min 0 min 42 W/m 12,9 km/h (3 Bft) 91,49 %
10.04.2019 19:14 11,0 C 10,0 C 9,4 C 55 % 1014,5 hPa 0,0 l/m 0 min 0 min 41 W/m 19,3 km/h (3 Bft) 93,48 %
10.04.2019 19:16 11,0 C 10,0 C 9,4 C 55 % 1014,5 hPa 0,0 l/m 0 min 0 min 40 W/m 9,7 km/h (2 Bft) 95,74 %
10.04.2019 19:18 10,9 C 10,0 C 9,4 C 56 % 1014,5 hPa 0,0 l/m 0 min 0 min 40 W/m 16,1 km/h (3 Bft) 93,62 %
10.04.2019 19:20 10,9 C 10,0 C 9,4 C 56 % 1014,5 hPa 0,0 l/m 0 min 0 min 39 W/m 16,1 km/h (3 Bft) 89,36 %
10.04.2019 19:22 10,8 C 10,0 C 9,4 C 56 % 1014,5 hPa 0,0 l/m 0 min 0 min 39 W/m 16,1 km/h (3 Bft) 95,74 %
10.04.2019 19:24 10,8 C 10,0 C 9,4 C 56 % 1014,6 hPa 0,0 l/m 0 min 0 min 37 W/m 9,7 km/h (2 Bft) 87,23 %
10.04.2019 19:26 10,8 C 10,0 C 9,4 C 57 % 1014,6 hPa 0,0 l/m 0 min 0 min 36 W/m 22,5 km/h (4 Bft) 91,30 %
10.04.2019 19:28 10,7 C 10,0 C 9,4 C 56 % 1014,6 hPa 0,0 l/m 0 min 0 min 34 W/m 9,7 km/h (2 Bft) 91,49 %
10.04.2019 19:30 10,7 C 9,4 C 8,9 C 57 % 1014,7 hPa 0,0 l/m 0 min 0 min 33 W/m 12,9 km/h (3 Bft) 97,87 %
10.04.2019 19:32 10,7 C 9,4 C 8,9 C 56 % 1014,7 hPa 0,0 l/m 0 min 0 min 32 W/m 16,1 km/h (3 Bft) 97,87 %
10.04.2019 19:34 10,6 C 9,4 C 8,9 C 56 % 1014,7 hPa 0,0 l/m 0 min 0 min 32 W/m 12,9 km/h (3 Bft) 97,83 %
10.04.2019 19:36 10,6 C 9,4 C 8,9 C 56 % 1014,7 hPa 0,0 l/m 0 min 0 min 30 W/m 9,7 km/h (2 Bft) 89,66 %
10.04.2019 19:38 10,5 C 9,4 C 8,9 C 57 % 1014,7 hPa 0,0 l/m 0 min 0 min 28 W/m 12,9 km/h (3 Bft) 85,71 %
10.04.2019 19:40 10,4 C 9,4 C 8,9 C 57 % 1014,7 hPa 0,0 l/m 0 min 0 min 27 W/m 22,5 km/h (4 Bft) 93,62 %
10.04.2019 19:42 10,4 C 9,4 C 8,9 C 57 % 1014,7 hPa 0,0 l/m 0 min 0 min 26 W/m 16,1 km/h (3 Bft) 93,62 %
10.04.2019 19:44 10,4 C 9,4 C 8,9 C 57 % 1014,8 hPa 0,0 l/m 0 min 0 min 26 W/m 12,9 km/h (3 Bft) 91,49 %
10.04.2019 19:46 10,3 C 9,4 C 8,9 C 57 % 1014,8 hPa 0,0 l/m 0 min 0 min 25 W/m 9,7 km/h (2 Bft) 95,74 %
10.04.2019 19:48 10,3 C 9,4 C 8,9 C 57 % 1014,8 hPa 0,0 l/m 0 min 0 min 24 W/m 16,1 km/h (3 Bft) 91,30 %
10.04.2019 19:50 10,2 C 9,4 C 8,9 C 57 % 1014,9 hPa 0,0 l/m 0 min 0 min 22 W/m 16,1 km/h (3 Bft) 91,49 %
10.04.2019 19:52 10,2 C 8,9 C 8,9 C 57 % 1014,9 hPa 0,0 l/m 0 min 0 min 21 W/m 22,5 km/h (4 Bft) 97,87 %
10.04.2019 19:54 10,1 C 8,9 C 8,3 C 57 % 1014,9 hPa 0,0 l/m 0 min 0 min 20 W/m 9,7 km/h (2 Bft) 89,36 %
10.04.2019 19:56 10,1 C 8,9 C 8,3 C 57 % 1014,9 hPa 0,0 l/m 0 min 0 min 19 W/m 12,9 km/h (3 Bft) 97,87 %
10.04.2019 19:58 10,1 C 8,9 C 8,3 C 57 % 1015,0 hPa 0,0 l/m 0 min 0 min 18 W/m 12,9 km/h (3 Bft) 95,74 %
10.04.2019 20:00 10,0 C 8,9 C 8,3 C 57 % 1015,2 hPa 0,0 l/m 0 min 0 min 18 W/m 12,9 km/h (3 Bft) 86,96 %
10.04.2019 20:02 9,9 C 8,9 C 8,3 C 57 % 1015,2 hPa 0,0 l/m 0 min 0 min 16 W/m 12,9 km/h (3 Bft) 89,58 %
10.04.2019 20:04 9,9 C 8,9 C 8,3 C 58 % 1015,2 hPa 0,0 l/m 0 min 0 min 14 W/m 16,1 km/h (3 Bft) 95,74 %
10.04.2019 20:06 9,8 C 8,3 C 8,3 C 58 % 1015,3 hPa 0,0 l/m 0 min 0 min 13 W/m 12,9 km/h (3 Bft) 93,22 %
10.04.2019 20:08 9,8 C 8,3 C 8,3 C 58 % 1015,2 hPa 0,0 l/m 0 min 0 min 12 W/m 22,5 km/h (4 Bft) 100,00 %
10.04.2019 20:10 9,7 C 8,3 C 7,8 C 58 % 1015,3 hPa 0,0 l/m 0 min 0 min 12 W/m 9,7 km/h (2 Bft) 80,85 %
10.04.2019 20:12 9,7 C 8,3 C 7,8 C 58 % 1015,3 hPa 0,0 l/m 0 min 0 min 10 W/m 12,9 km/h (3 Bft) 89,13 %
10.04.2019 20:14 9,7 C 8,3 C 7,8 C 58 % 1015,3 hPa 0,0 l/m 0 min 0 min 9 W/m 16,1 km/h (3 Bft) 78,72 %
10.04.2019 20:16 9,6 C 8,3 C 7,8 C 58 % 1015,3 hPa 0,0 l/m 0 min 0 min 7 W/m 16,1 km/h (3 Bft) 95,74 %
10.04.2019 20:18 9,6 C 8,3 C 7,8 C 58 % 1015,3 hPa 0,0 l/m 0 min 0 min 6 W/m 16,1 km/h (3 Bft) 91,49 %
10.04.2019 20:20 9,5 C 8,3 C 7,8 C 58 % 1015,4 hPa 0,0 l/m 0 min 0 min 5 W/m 12,9 km/h (3 Bft) 82,98 %
10.04.2019 20:22 9,4 C 8,3 C 7,8 C 59 % 1015,4 hPa 0,0 l/m 0 min 0 min 5 W/m 9,7 km/h (2 Bft) 91,49 %
10.04.2019 20:24 9,4 C 8,3 C 7,8 C 58 % 1015,4 hPa 0,0 l/m 0 min 0 min 1 W/m 16,1 km/h (3 Bft) 95,65 %
10.04.2019 20:26 9,4 C 8,3 C 7,8 C 58 % 1015,5 hPa 0,0 l/m 0 min 0 min 0 W/m 12,9 km/h (3 Bft) 87,23 %
10.04.2019 20:28 9,3 C 8,3 C 7,8 C 58 % 1015,5 hPa 0,0 l/m 0 min 0 min 0 W/m 9,7 km/h (2 Bft) 78,72 %
10.04.2019 20:30 9,3 C 7,8 C 7,8 C 59 % 1015,6 hPa 0,0 l/m 0 min 0 min 0 W/m 9,7 km/h (2 Bft) 97,87 %
10.04.2019 20:32 9,3 C 7,8 C 7,2 C 59 % 1015,6 hPa 0,0 l/m 0 min 0 min 0 W/m 12,9 km/h (3 Bft) 97,87 %
10.04.2019 20:34 9,2 C 7,8 C 7,2 C 59 % 1015,5 hPa 0,0 l/m 0 min 0 min 0 W/m 9,7 km/h (2 Bft) 97,87 %
10.04.2019 20:36 9,2 C 7,8 C 7,2 C 60 % 1015,7 hPa 0,0 l/m 0 min 0 min 0 W/m 12,9 km/h (3 Bft) 97,83 %
10.04.2019 20:38 9,2 C 7,8 C 7,2 C 60 % 1015,7 hPa 0,0 l/m 0 min 0 min 0 W/m 12,9 km/h (3 Bft) 97,96 %
10.04.2019 20:40 9,1 C 7,8 C 7,2 C 60 % 1015,6 hPa 0,0 l/m 0 min 0 min 0 W/m 9,7 km/h (2 Bft) 97,87 %
10.04.2019 20:42 9,0 C 7,8 C 7,2 C 60 % 1015,6 hPa 0,0 l/m 0 min 0 min 0 W/m 12,9 km/h (3 Bft) 97,87 %
10.04.2019 20:44 9,0 C 7,8 C 7,2 C 60 % 1015,7 hPa 0,0 l/m 0 min 0 min 0 W/m 9,7 km/h (2 Bft) 97,87 %
10.04.2019 20:46 8,9 C 7,8 C 7,2 C 60 % 1015,7 hPa 0,0 l/m 0 min 0 min 0 W/m 12,9 km/h (3 Bft) 97,83 %
10.04.2019 20:48 8,9 C 7,2 C 7,2 C 60 % 1015,7 hPa 0,0 l/m 0 min 0 min 0 W/m 6,4 km/h (2 Bft) 97,87 %
10.04.2019 20:50 8,8 C 7,2 C 7,2 C 60 % 1015,8 hPa 0,0 l/m 0 min 0 min 0 W/m 9,7 km/h (2 Bft) 97,87 %
10.04.2019 20:52 8,8 C 7,2 C 6,7 C 60 % 1015,8 hPa 0,0 l/m 0 min 0 min 0 W/m 9,7 km/h (2 Bft) 93,62 %
10.04.2019 20:54 8,8 C 7,2 C 6,7 C 60 % 1015,8 hPa 0,0 l/m 0 min 0 min 0 W/m 12,9 km/h (3 Bft) 97,87 %
10.04.2019 20:56 8,7 C 7,2 C 6,7 C 60 % 1015,8 hPa 0,0 l/m 0 min 0 min 0 W/m 9,7 km/h (2 Bft) 93,62 %
10.04.2019 20:58 8,7 C 7,2 C 6,7 C 60 % 1015,8 hPa 0,0 l/m 0 min 0 min 0 W/m 16,1 km/h (3 Bft) 97,83 %
10.04.2019 21:00 8,6 C 7,2 C 6,7 C 60 % 1015,8 hPa 0,0 l/m 0 min 0 min 0 W/m 16,1 km/h (3 Bft) 95,74 %
10.04.2019 21:02 8,6 C 7,2 C 6,7 C 60 % 1015,9 hPa 0,0 l/m 0 min 0 min 0 W/m 9,7 km/h (2 Bft) 97,87 %
10.04.2019 21:04 8,5 C 7,2 C 6,7 C 60 % 1015,8 hPa 0,0 l/m 0 min 0 min 0 W/m 6,4 km/h (2 Bft) 97,87 %
10.04.2019 21:06 8,5 C 7,2 C 6,7 C 60 % 1015,9 hPa 0,0 l/m 0 min 0 min 0 W/m 22,5 km/h (4 Bft) 97,87 %
10.04.2019 21:08 8,4 C 7,2 C 6,7 C 60 % 1015,9 hPa 0,0 l/m 0 min 0 min 0 W/m 16,1 km/h (3 Bft) 97,87 %
10.04.2019 21:10 8,4 C 7,2 C 6,7 C 60 % 1016,0 hPa 0,0 l/m 0 min 0 min 0 W/m 12,9 km/h (3 Bft) 100,00 %
10.04.2019 21:12 8,4 C 7,2 C 6,7 C 61 % 1016,1 hPa 0,0 l/m 0 min 0 min 0 W/m 9,7 km/h (2 Bft) 100,00 %
10.04.2019 21:14 8,3 C 7,2 C 6,7 C 61 % 1016,1 hPa 0,0 l/m 0 min 0 min 0 W/m 6,4 km/h (2 Bft) 97,87 %
10.04.2019 21:16 8,3 C 7,2 C 6,7 C 61 % 1016,1 hPa 0,0 l/m 0 min 0 min 0 W/m 9,7 km/h (2 Bft) 100,00 %
10.04.2019 21:18 8,3 C 6,7 C 6,7 C 61 % 1016,1 hPa 0,0 l/m 0 min 0 min 0 W/m 6,4 km/h (2 Bft) 100,00 %
10.04.2019 21:20 8,2 C 6,7 C 6,1 C 61 % 1016,2 hPa 0,0 l/m 0 min 0 min 0 W/m 12,9 km/h (3 Bft) 100,00 %
10.04.2019 21:22 8,2 C 6,7 C 6,1 C 61 % 1016,2 hPa 0,0 l/m 0 min 0 min 0 W/m 9,7 km/h (2 Bft) 97,83 %
10.04.2019 21:24 8,2 C 6,7 C 6,1 C 61 % 1016,1 hPa 0,0 l/m 0 min 0 min 0 W/m 9,7 km/h (2 Bft) 95,74 %
10.04.2019 21:26 8,1 C 6,7 C 6,1 C 61 % 1016,3 hPa 0,0 l/m 0 min 0 min 0 W/m 3,2 km/h (1 Bft) 95,74 %
10.04.2019 21:28 8,1 C 6,7 C 6,1 C 61 % 1016,2 hPa 0,0 l/m 0 min 0 min 0 W/m 6,4 km/h (2 Bft) 97,87 %
10.04.2019 21:30 8,1 C 6,1 C 5,6 C 62 % 1016,3 hPa 0,0 l/m 0 min 0 min 0 W/m 3,2 km/h (1 Bft) 97,87 %
10.04.2019 21:32 8,1 C 6,1 C 5,6 C 62 % 1016,3 hPa 0,0 l/m 0 min 0 min 0 W/m 3,2 km/h (1 Bft) 97,87 %
10.04.2019 21:34 8,0 C 6,1 C 5,6 C 62 % 1016,4 hPa 0,0 l/m 0 min 0 min 0 W/m 3,2 km/h (1 Bft) 97,83 %
10.04.2019 21:36 8,0 C 6,1 C 5,6 C 62 % 1016,4 hPa 0,0 l/m 0 min 0 min 0 W/m 3,2 km/h (1 Bft) 97,87 %
10.04.2019 21:38 7,9 C 6,1 C 5,6 C 62 % 1016,4 hPa 0,0 l/m 0 min 0 min 0 W/m 9,7 km/h (2 Bft) 97,87 %
10.04.2019 21:40 7,9 C 6,1 C 5,6 C 62 % 1016,4 hPa 0,0 l/m 0 min 0 min 0 W/m 6,4 km/h (2 Bft) 97,87 %
10.04.2019 21:42 7,8 C 6,1 C 5,6 C 62 % 1016,4 hPa 0,0 l/m 0 min 0 min 0 W/m 6,4 km/h (2 Bft) 95,74 %
10.04.2019 21:44 7,8 C 6,1 C 5,6 C 62 % 1016,4 hPa 0,0 l/m 0 min 0 min 0 W/m 3,2 km/h (1 Bft) 97,83 %
10.04.2019 21:46 7,7 C 6,1 C 5,0 C 62 % 1016,4 hPa 0,0 l/m 0 min 0 min 0 W/m 3,2 km/h (1 Bft) 97,87 %
10.04.2019 21:48 7,7 C 6,1 C 5,0 C 62 % 1016,4 hPa 0,0 l/m 0 min 0 min 0 W/m 9,7 km/h (2 Bft) 95,74 %
10.04.2019 21:50 7,7 C 5,6 C 5,0 C 62 % 1016,4 hPa 0,0 l/m 0 min 0 min 0 W/m 6,4 km/h (2 Bft) 97,87 %
10.04.2019 21:52 7,6 C 5,6 C 5,0 C 63 % 1016,5 hPa 0,0 l/m 0 min 0 min 0 W/m 6,4 km/h (2 Bft) 97,87 %
10.04.2019 21:54 7,6 C 5,6 C 5,0 C 63 % 1016,5 hPa 0,0 l/m 0 min 0 min 0 W/m 6,4 km/h (2 Bft) 97,87 %
10.04.2019 21:56 7,4 C 5,6 C 5,0 C 63 % 1016,5 hPa 0,0 l/m 0 min 0 min 0 W/m 9,7 km/h (2 Bft) 95,65 %
10.04.2019 21:58 7,4 C 6,1 C 5,0 C 63 % 1016,5 hPa 0,0 l/m 0 min 0 min 0 W/m 6,4 km/h (2 Bft) 95,74 %
10.04.2019 22:00 7,3 C 6,1 C 5,6 C 63 % 1016,5 hPa 0,0 l/m 0 min 0 min 0 W/m 3,2 km/h (1 Bft) 97,87 %
10.04.2019 22:02 7,3 C 5,6 C 5,0 C 63 % 1016,6 hPa 0,0 l/m 0 min 0 min 0 W/m 6,4 km/h (2 Bft) 97,92 %
10.04.2019 22:04 7,3 C 5,6 C 5,0 C 63 % 1016,7 hPa 0,0 l/m 0 min 0 min 0 W/m 3,2 km/h (1 Bft) 97,87 %
10.04.2019 22:06 7,2 C 5,6 C 5,0 C 63 % 1016,7 hPa 0,0 l/m 0 min 0 min 0 W/m 6,4 km/h (2 Bft) 95,74 %
10.04.2019 22:08 7,2 C 5,6 C 5,0 C 63 % 1016,6 hPa 0,0 l/m 0 min 0 min 0 W/m 9,7 km/h (2 Bft) 95,65 %
10.04.2019 22:10 7,1 C 5,6 C 5,0 C 63 % 1016,5 hPa 0,0 l/m 0 min 0 min 0 W/m 9,7 km/h (2 Bft) 97,87 %
10.04.2019 22:12 7,1 C 5,6 C 5,0 C 63 % 1016,6 hPa 0,0 l/m 0 min 0 min 0 W/m 6,4 km/h (2 Bft) 95,74 %
10.04.2019 22:14 7,1 C 5,6 C 5,0 C 64 % 1016,7 hPa 0,0 l/m 0 min 0 min 0 W/m 6,4 km/h (2 Bft) 97,87 %
10.04.2019 22:16 7,0 C 5,6 C 5,0 C 63 % 1016,7 hPa 0,0 l/m 0 min 0 min 0 W/m 9,7 km/h (2 Bft) 97,87 %
10.04.2019 22:18 6,9 C 5,6 C 5,0 C 63 % 1016,7 hPa 0,0 l/m 0 min 0 min 0 W/m 6,4 km/h (2 Bft) 97,87 %
10.04.2019 22:20 6,9 C 5,6 C 5,0 C 64 % 1016,7 hPa 0,0 l/m 0 min 0 min 0 W/m 9,7 km/h (2 Bft) 95,65 %
10.04.2019 22:22 6,9 C 6,1 C 5,0 C 63 % 1016,8 hPa 0,0 l/m 0 min 0 min 0 W/m 6,4 km/h (2 Bft) 97,87 %
10.04.2019 22:24 6,9 C 5,6 C 5,0 C 63 % 1016,8 hPa 0,0 l/m 0 min 0 min 0 W/m 6,4 km/h (2 Bft) 97,87 %
10.04.2019 22:26 6,8 C 5,6 C 5,0 C 63 % 1016,7 hPa 0,0 l/m 0 min 0 min 0 W/m 6,4 km/h (2 Bft) 97,87 %
10.04.2019 22:28 6,8 C 5,6 C 5,0 C 63 % 1016,9 hPa 0,0 l/m 0 min 0 min 0 W/m 6,4 km/h (2 Bft) 95,74 %
10.04.2019 22:30 6,8 C 5,6 C 5,0 C 63 % 1016,8 hPa 0,0 l/m 0 min 0 min 0 W/m 6,4 km/h (2 Bft) 97,83 %
10.04.2019 22:32 6,8 C 5,6 C 5,0 C 63 % 1016,8 hPa 0,0 l/m 0 min 0 min 0 W/m 9,7 km/h (2 Bft) 97,87 %
10.04.2019 22:34 6,8 C 5,6 C 5,0 C 64 % 1016,8 hPa 0,0 l/m 0 min 0 min 0 W/m 12,9 km/h (3 Bft) 97,87 %
10.04.2019 22:36 6,7 C 5,6 C 5,0 C 64 % 1016,9 hPa 0,0 l/m 0 min 0 min 0 W/m 9,7 km/h (2 Bft) 95,74 %
10.04.2019 22:38 6,7 C 5,6 C 5,0 C 64 % 1016,8 hPa 0,0 l/m 0 min 0 min 0 W/m 9,7 km/h (2 Bft) 95,74 %
10.04.2019 22:40 6,7 C 5,6 C 5,0 C 64 % 1016,9 hPa 0,0 l/m 0 min 0 min 0 W/m 6,4 km/h (2 Bft) 95,74 %
10.04.2019 22:42 6,7 C 5,6 C 5,0 C 64 % 1016,9 hPa 0,0 l/m 0 min 0 min 0 W/m 16,1 km/h (3 Bft) 89,13 %
10.04.2019 22:44 6,7 C 5,6 C 5,0 C 64 % 1016,9 hPa 0,0 l/m 0 min 0 min 0 W/m 9,7 km/h (2 Bft) 95,74 %
10.04.2019 22:46 6,7 C 5,6 C 5,0 C 64 % 1017,0 hPa 0,0 l/m 0 min 0 min 0 W/m 9,7 km/h (2 Bft) 93,62 %
10.04.2019 22:48 6,6 C 5,6 C 5,0 C 64 % 1016,9 hPa 0,0 l/m 0 min 0 min 0 W/m 9,7 km/h (2 Bft) 95,74 %
10.04.2019 22:50 6,6 C 5,6 C 5,0 C 64 % 1016,9 hPa 0,0 l/m 0 min 0 min 0 W/m 12,9 km/h (3 Bft) 93,62 %
10.04.2019 22:52 6,6 C 5,6 C 5,0 C 64 % 1016,9 hPa 0,0 l/m 0 min 0 min 0 W/m 12,9 km/h (3 Bft) 93,62 %
10.04.2019 22:54 6,6 C 5,6 C 5,0 C 64 % 1017,0 hPa 0,0 l/m 0 min 0 min 0 W/m 9,7 km/h (2 Bft) 97,83 %
10.04.2019 22:56 6,6 C 5,6 C 5,0 C 64 % 1016,9 hPa 0,0 l/m 0 min 0 min 0 W/m 12,9 km/h (3 Bft) 97,87 %
10.04.2019 22:58 6,6 C 5,6 C 5,0 C 64 % 1017,0 hPa 0,0 l/m 0 min 0 min 0 W/m 22,5 km/h (4 Bft) 97,87 %
10.04.2019 23:00 6,6 C 5,6 C 5,0 C 64 % 1017,1 hPa 0,0 l/m 0 min 0 min 0 W/m 9,7 km/h (2 Bft) 97,87 %
10.04.2019 23:02 6,6 C 5,6 C 5,0 C 64 % 1017,1 hPa 0,0 l/m 0 min 0 min 0 W/m 6,4 km/h (2 Bft) 95,74 %
10.04.2019 23:04 6,6 C 5,6 C 5,0 C 64 % 1017,1 hPa 0,0 l/m 0 min 0 min 0 W/m 6,4 km/h (2 Bft) 97,87 %
10.04.2019 23:06 6,5 C 5,6 C 5,0 C 64 % 1017,2 hPa 0,0 l/m 0 min 0 min 0 W/m 9,7 km/h (2 Bft) 97,83 %
10.04.2019 23:08 6,5 C 5,6 C 5,0 C 64 % 1017,2 hPa 0,0 l/m 0 min 0 min 0 W/m 9,7 km/h (2 Bft) 97,87 %
10.04.2019 23:10 6,5 C 5,6 C 5,0 C 64 % 1017,2 hPa 0,0 l/m 0 min 0 min 0 W/m 9,7 km/h (2 Bft) 95,74 %
10.04.2019 23:12 6,4 C 5,6 C 4,4 C 64 % 1017,2 hPa 0,0 l/m 0 min 0 min 0 W/m 6,4 km/h (2 Bft) 97,87 %
10.04.2019 23:14 6,4 C 5,6 C 5,0 C 65 % 1017,2 hPa 0,0 l/m 0 min 0 min 0 W/m 9,7 km/h (2 Bft) 97,87 %
10.04.2019 23:16 6,4 C 5,6 C 4,4 C 65 % 1017,2 hPa 0,0 l/m 0 min 0 min 0 W/m 6,4 km/h (2 Bft) 97,87 %
10.04.2019 23:18 6,4 C 5,0 C 4,4 C 65 % 1017,2 hPa 0,0 l/m 0 min 0 min 0 W/m 9,7 km/h (2 Bft) 97,83 %
10.04.2019 23:20 6,4 C 5,6 C 4,4 C 64 % 1017,2 hPa 0,0 l/m 0 min 0 min 0 W/m 9,7 km/h (2 Bft) 97,87 %
10.04.2019 23:22 6,4 C 5,0 C 4,4 C 64 % 1017,3 hPa 0,0 l/m 0 min 0 min 0 W/m 6,4 km/h (2 Bft) 97,87 %
10.04.2019 23:24 6,3 C 5,0 C 4,4 C 65 % 1017,3 hPa 0,0 l/m 0 min 0 min 0 W/m 6,4 km/h (2 Bft) 95,74 %
10.04.2019 23:26 6,3 C 5,0 C 4,4 C 65 % 1017,3 hPa 0,0 l/m 0 min 0 min 0 W/m 22,5 km/h (4 Bft) 97,87 %
10.04.2019 23:28 6,3 C 5,0 C 4,4 C 65 % 1017,3 hPa 0,0 l/m 0 min 0 min 0 W/m 6,4 km/h (2 Bft) 97,87 %
10.04.2019 23:30 6,3 C 5,0 C 4,4 C 65 % 1017,4 hPa 0,0 l/m 0 min 0 min 0 W/m 6,4 km/h (2 Bft) 97,83 %
10.04.2019 23:32 6,2 C 5,0 C 4,4 C 65 % 1017,5 hPa 0,0 l/m 0 min 0 min 0 W/m 9,7 km/h (2 Bft) 97,87 %
10.04.2019 23:34 6,2 C 5,0 C 4,4 C 65 % 1017,3 hPa 0,0 l/m 0 min 0 min 0 W/m 6,4 km/h (2 Bft) 95,74 %
10.04.2019 23:36 6,2 C 5,0 C 4,4 C 65 % 1017,5 hPa 0,0 l/m 0 min 0 min 0 W/m 9,7 km/h (2 Bft) 97,87 %
10.04.2019 23:38 6,2 C 5,0 C 4,4 C 65 % 1017,4 hPa 0,0 l/m 0 min 0 min 0 W/m 12,9 km/h (3 Bft) 97,87 %
10.04.2019 23:40 6,2 C 5,0 C 4,4 C 65 % 1017,5 hPa 0,0 l/m 0 min 0 min 0 W/m 6,4 km/h (2 Bft) 97,83 %
10.04.2019 23:42 6,1 C 5,0 C 4,4 C 65 % 1017,6 hPa 0,0 l/m 0 min 0 min 0 W/m 9,7 km/h (2 Bft) 95,74 %
10.04.2019 23:44 6,1 C 5,0 C 4,4 C 65 % 1017,5 hPa 0,0 l/m 0 min 0 min 0 W/m 6,4 km/h (2 Bft) 97,87 %
10.04.2019 23:46 6,1 C 5,0 C 4,4 C 65 % 1017,6 hPa 0,0 l/m 0 min 0 min 0 W/m 6,4 km/h (2 Bft) 97,87 %
10.04.2019 23:48 6,1 C 5,0 C 4,4 C 65 % 1017,6 hPa 0,0 l/m 0 min 0 min 0 W/m 6,4 km/h (2 Bft) 97,87 %
10.04.2019 23:50 6,1 C 5,0 C 4,4 C 65 % 1017,6 hPa 0,0 l/m 0 min 0 min 0 W/m 6,4 km/h (2 Bft) 97,87 %
10.04.2019 23:52 6,0 C 5,0 C 4,4 C 65 % 1017,6 hPa 0,0 l/m 0 min 0 min 0 W/m 9,7 km/h (2 Bft) 97,83 %
10.04.2019 23:54 6,0 C 5,0 C 3,9 C 66 % 1017,7 hPa 0,0 l/m 0 min 0 min 0 W/m 6,4 km/h (2 Bft) 100,00 %
10.04.2019 23:56 5,9 C 5,0 C 4,4 C 65 % 1017,6 hPa 0,0 l/m 0 min 0 min 0 W/m 12,9 km/h (3 Bft) 97,87 %
10.04.2019 23:58 5,9 C 5,0 C 4,4 C 65 % 1017,7 hPa 0,0 l/m 0 min 0 min 0 W/m 16,1 km/h (3 Bft) 100,00 %
_ Min-Zeit 07:28 06:50 07:06 17:10 00:00 - - - - 21:26 20:14
Minimum _ 4,1 C 3,3 C 2,8 C 47 % 1009,9 hPa - - - - 3,2 km/h (1 Bft) 78,72 %
_ Max-Zeit 15:32 13:30 14:40 07:16 23:54 00:00 12:08 00:00 13:30 16:32 00:18
Maximum _ 15,3 C 22,2 C 23,3 C 81 % 1017,7 hPa 0,0 l/m 4 min 0 min 828 W/m 35,4 km/h
NO (5 Bft)
100,00 %
Durchschnitt _ 9,4 C 10,6 C 9,3 C 65 % 1013,0 hPa #0,0 l/m #8:24 h #0 min. 412 W/m 14,7 km/h (3 Bft) 96,91 %
© 2019 W. Hausmann